Observation data for Vigo Park on 02/13/2018      Previous  Date  Next       Current Mesonet Observations  Soil Data  Daily Summary Page  Observations in Plain Language
KVP1 130601Z 13010KT M04/M12 A3027 RMK A01 T10441119  RH  056%=      5-min Rain = 0
KVP1 130602Z 13010KT M05/M12 A3027 RMK A01 T10451119  RH  056%=      5-min Rain = 0
KVP1 130603Z 13010KT M04/M12 A3027 RMK A01 T10441119  RH  056%=      5-min Rain = 0
KVP1 130604Z 12009KT M04/M12 A3027 RMK A01 T10441118  RH  056%=      5-min Rain = 0
KVP1 130605Z 13010KT M04/M12 A3027 RMK A01 T10441118  RH  056%=      5-min Rain = 0
KVP1 130606Z 12009KT M04/M12 A3027 RMK A01 T10431118  RH  056%=      5-min Rain = 0
KVP1 130607Z 12009KT M04/M12 A3027 RMK A01 T10431118  RH  056%=      5-min Rain = 0
KVP1 130608Z 12008KT M04/M12 A3027 RMK A01 T10431118  RH  056%=      5-min Rain = 0
KVP1 130609Z 12009KT M04/M12 A3027 RMK A01 T10431118  RH  056%=      5-min Rain = 0
KVP1 130610Z 12008KT M04/M12 A3027 RMK A01 T10431117  RH  056%=      5-min Rain = 0
KVP1 130611Z 12008KT M04/M12 A3027 RMK A01 T10431117  RH  056%=      5-min Rain = 0
KVP1 130612Z 12008KT M04/M12 A3027 RMK A01 T10431117  RH  056%=      5-min Rain = 0
KVP1 130613Z 12008KT M04/M12 A3027 RMK A01 T10431117  RH  056%=      5-min Rain = 0
KVP1 130614Z 12008KT M04/M12 A3027 RMK A01 T10431117  RH  056%=      5-min Rain = 0
KVP1 130615Z 12008KT M04/M12 A3027 RMK A01 T10431116  RH  057%=      5-min Rain = 0
KVP1 130616Z 12008KT M04/M12 A3027 RMK A01 T10421115  RH  057%=      5-min Rain = 0
KVP1 130617Z 12007KT M04/M12 A3027 RMK A01 T10431116  RH  057%=      5-min Rain = 0
KVP1 130618Z 12008KT M04/M12 A3027 RMK A01 T10431115  RH  057%=      5-min Rain = 0
KVP1 130619Z 12007KT M04/M12 A3027 RMK A01 T10421115  RH  057%=      5-min Rain = 0
KVP1 130620Z 12007KT M04/M12 A3027 RMK A01 T10421115  RH  057%=      5-min Rain = 0
KVP1 130621Z 12007KT M04/M12 A3027 RMK A01 T10421115  RH  057%=      5-min Rain = 0
KVP1 130622Z 12007KT M04/M12 A3027 RMK A01 T10431115  RH  057%=      5-min Rain = 0
KVP1 130623Z 12008KT M04/M12 A3027 RMK A01 T10431115  RH  057%=      5-min Rain = 0
KVP1 130624Z 12008KT M04/M11 A3027 RMK A01 T10431114  RH  057%=      5-min Rain = 0
KVP1 130625Z 12008KT M04/M12 A3027 RMK A01 T10431115  RH  057%=      5-min Rain = 0
KVP1 130626Z 11008KT M04/M12 A3027 RMK A01 T10431115  RH  057%=      5-min Rain = 0
KVP1 130627Z 11008KT M04/M12 A3027 RMK A01 T10441115  RH  057%=      5-min Rain = 0
KVP1 130628Z 12008KT M04/M12 A3027 RMK A01 T10441115  RH  058%=      5-min Rain = 0
KVP1 130629Z 11008KT M04/M12 A3027 RMK A01 T10441115  RH  058%=      5-min Rain = 0
KVP1 130630Z 12008KT M04/M12 A3027 RMK A01 T10441115  RH  058%=      5-min Rain = 0
KVP1 130631Z 12007KT M04/M11 A3027 RMK A01 T10441114  RH  058%=      5-min Rain = 0
KVP1 130632Z 12007KT M04/M11 A3027 RMK A01 T10441114  RH  058%=      5-min Rain = 0
KVP1 130633Z 12007KT M04/M11 A3027 RMK A01 T10441114  RH  058%=      5-min Rain = 0
KVP1 130634Z 12007KT M04/M11 A3027 RMK A01 T10441114  RH  058%=      5-min Rain = 0
KVP1 130635Z 12007KT M05/M11 A3027 RMK A01 T10451114  RH  058%=      5-min Rain = 0
KVP1 130636Z 13007KT M05/M12 A3027 RMK A01 T10451115  RH  058%=      5-min Rain = 0
KVP1 130637Z 13008KT M05/M12 A3027 RMK A01 T10461115  RH  058%=      5-min Rain = 0
KVP1 130638Z 13008KT M05/M12 A3027 RMK A01 T10461115  RH  059%=      5-min Rain = 0
KVP1 130639Z 13008KT M05/M12 A3027 RMK A01 T10471115  RH  059%=      5-min Rain = 0
KVP1 130640Z 13009KT M05/M12 A3027 RMK A01 T10471115  RH  059%=      5-min Rain = 0
KVP1 130641Z 13009KT M05/M12 A3027 RMK A01 T10481116  RH  059%=      5-min Rain = 0
KVP1 130642Z 13009KT M05/M12 A3027 RMK A01 T10481115  RH  059%=      5-min Rain = 0
KVP1 130643Z 13009KT M05/M12 A3027 RMK A01 T10481115  RH  059%=      5-min Rain = 0
KVP1 130644Z 13009KT M05/M12 A3027 RMK A01 T10471115  RH  059%=      5-min Rain = 0
KVP1 130645Z 13010KT M05/M11 A3027 RMK A01 T10471114  RH  059%=      5-min Rain = 0
KVP1 130646Z 13009KT M05/M11 A3027 RMK A01 T10461113  RH  059%=      5-min Rain = 0
KVP1 130647Z 13009KT M05/M11 A3027 RMK A01 T10461113  RH  059%=      5-min Rain = 0
KVP1 130648Z 13009KT M05/M11 A3027 RMK A01 T10451113  RH  059%=      5-min Rain = 0
KVP1 130649Z 13009KT M05/M11 A3027 RMK A01 T10451113  RH  059%=      5-min Rain = 0
KVP1 130650Z 13008KT M04/M11 A3027 RMK A01 T10441112  RH  059%=      5-min Rain = 0
KVP1 130651Z 13008KT M04/M11 A3027 RMK A01 T10441112  RH  059%=      5-min Rain = 0
KVP1 130652Z 13008KT M04/M11 A3027 RMK A01 T10441112  RH  059%=      5-min Rain = 0
KVP1 130653Z 13008KT M04/M11 A3027 RMK A01 T10441112  RH  059%=      5-min Rain = 0
KVP1 130654Z 13008KT M04/M11 A3027 RMK A01 T10441112  RH  059%=      5-min Rain = 0
KVP1 130655Z 13008KT M04/M11 A3027 RMK A01 T10441112  RH  059%=      5-min Rain = 0
KVP1 130656Z 13008KT M04/M11 A3027 RMK A01 T10431111  RH  059%=      5-min Rain = 0
KVP1 130657Z 13008KT M04/M11 A3027 RMK A01 T10431111  RH  059%=      5-min Rain = 0
KVP1 130658Z 13008KT M04/M11 A3027 RMK A01 T10431111  RH  059%=      5-min Rain = 0
KVP1 130659Z 13008KT M04/M11 A3027 RMK A01 T10431111  RH  059%=      5-min Rain = 0
KVP1 130700Z 13008KT M04/M11 A3027 RMK A01 T10431111  RH  059%=      5-min Rain = 0
KVP1 130701Z 13008KT M04/M11 A3027 RMK A01 T10441111  RH  059%=      5-min Rain = 0
KVP1 130702Z 13009KT M05/M11 A3027 RMK A01 T10451112  RH  060%=      5-min Rain = 0
KVP1 130703Z 13008KT M05/M11 A3027 RMK A01 T10451111  RH  060%=      5-min Rain = 0
KVP1 130704Z 13008KT M05/M11 A3027 RMK A01 T10451111  RH  060%=      5-min Rain = 0
KVP1 130705Z 13009KT M05/M11 A3027 RMK A01 T10451111  RH  060%=      5-min Rain = 0
KVP1 130706Z 13010KT M05/M11 A3027 RMK A01 T10461112  RH  060%=      5-min Rain = 0
KVP1 130707Z 13010KT M05/M11 A3027 RMK A01 T10471111  RH  061%=      5-min Rain = 0
KVP1 130708Z 13009KT M05/M11 A3027 RMK A01 T10461111  RH  061%=      5-min Rain = 0
KVP1 130709Z 13009KT M05/M11 A3027 RMK A01 T10461111  RH  061%=      5-min Rain = 0
KVP1 130710Z 13009KT M05/M11 A3027 RMK A01 T10471111  RH  061%=      5-min Rain = 0
KVP1 130711Z 13008KT M05/M11 A3027 RMK A01 T10471110  RH  061%=      5-min Rain = 0
KVP1 130712Z 13008KT M05/M11 A3027 RMK A01 T10461110  RH  061%=      5-min Rain = 0
KVP1 130713Z 13008KT M05/M11 A3027 RMK A01 T10461109  RH  061%=      5-min Rain = 0
KVP1 130714Z 13009KT M05/M11 A3027 RMK A01 T10471109  RH  062%=      5-min Rain = 0
KVP1 130715Z 13010KT M05/M11 A3027 RMK A01 T10461107  RH  062%=      5-min Rain = 0
KVP1 130716Z 13009KT M05/M11 A3027 RMK A01 T10451106  RH  062%=      5-min Rain = 0
KVP1 130717Z 13009KT M04/M11 A3027 RMK A01 T10441105  RH  062%=      5-min Rain = 0
KVP1 130718Z 13010KT M04/M11 A3027 RMK A01 T10441105  RH  062%=      5-min Rain = 0
KVP1 130719Z 13009KT M04/M10 A3027 RMK A01 T10431104  RH  063%=      5-min Rain = 0
KVP1 130720Z 13010KT M04/M10 A3027 RMK A01 T10431103  RH  063%=      5-min Rain = 0
KVP1 130721Z 13010KT M04/M10 A3027 RMK A01 T10421102  RH  063%=      5-min Rain = 0
KVP1 130722Z 13009KT M04/M10 A3027 RMK A01 T10421102  RH  063%=      5-min Rain = 0
KVP1 130723Z 13009KT M04/M10 A3027 RMK A01 T10411101  RH  063%=      5-min Rain = 0
KVP1 130724Z 13009KT M04/M10 A3027 RMK A01 T10411101  RH  063%=      5-min Rain = 0
KVP1 130725Z 13009KT M04/M10 A3027 RMK A01 T10411101  RH  063%=      5-min Rain = 0
KVP1 130726Z 12009KT M04/M10 A3027 RMK A01 T10411100  RH  064%=      5-min Rain = 0
KVP1 130727Z 13010KT M04/M10 A3027 RMK A01 T10411100  RH  064%=      5-min Rain = 0
KVP1 130728Z 12010KT M04/M10 A3027 RMK A01 T10411099  RH  064%=      5-min Rain = 0
KVP1 130729Z 13010KT M04/M10 A3027 RMK A01 T10411099  RH  064%=      5-min Rain = 0
KVP1 130730Z 13010KT M04/M10 A3027 RMK A01 T10411099  RH  064%=      5-min Rain = 0
KVP1 130731Z 12009KT M04/M10 A3027 RMK A01 T10411098  RH  064%=      5-min Rain = 0
KVP1 130732Z 13009KT M04/M10 A3027 RMK A01 T10411098  RH  065%=      5-min Rain = 0
KVP1 130733Z 13009KT M04/M10 A3027 RMK A01 T10411098  RH  065%=      5-min Rain = 0
KVP1 130734Z 13010KT M04/M10 A3027 RMK A01 T10411097  RH  065%=      5-min Rain = 0
KVP1 130735Z 13009KT M04/M10 A3027 RMK A01 T10401096  RH  065%=      5-min Rain = 0
KVP1 130736Z 13010KT M04/M10 A3027 RMK A01 T10401096  RH  065%=      5-min Rain = 0
KVP1 130737Z 13010KT M04/M10 A3027 RMK A01 T10411096  RH  065%=      5-min Rain = 0
KVP1 130738Z 12010KT M04/M10 A3027 RMK A01 T10401096  RH  065%=      5-min Rain = 0
KVP1 130739Z 13010KT M04/M10 A3027 RMK A01 T10401095  RH  066%=      5-min Rain = 0
KVP1 130740Z 13010KT M04/M09 A3027 RMK A01 T10391094  RH  066%=      5-min Rain = 0
KVP1 130741Z 12009KT M04/M09 A3027 RMK A01 T10391094  RH  065%=      5-min Rain = 0
KVP1 130742Z 12010KT M04/M09 A3027 RMK A01 T10391094  RH  065%=      5-min Rain = 0
KVP1 130743Z 13010KT M04/M09 A3027 RMK A01 T10381093  RH  066%=      5-min Rain = 0
KVP1 130744Z 12010KT M04/M09 A3027 RMK A01 T10371093  RH  065%=      5-min Rain = 0
KVP1 130745Z 12010KT M04/M09 A3027 RMK A01 T10371093  RH  065%=      5-min Rain = 0
KVP1 130746Z 13010KT M04/M09 A3027 RMK A01 T10371092  RH  065%=      5-min Rain = 0
KVP1 130747Z 13010KT M04/M09 A3027 RMK A01 T10371092  RH  065%=      5-min Rain = 0
KVP1 130748Z 13010KT M04/M09 A3027 RMK A01 T10371093  RH  065%=      5-min Rain = 0
KVP1 130749Z 13010KT M04/M09 A3027 RMK A01 T10371093  RH  065%=      5-min Rain = 0
KVP1 130750Z 13010KT M04/M09 A3027 RMK A01 T10371092  RH  065%=      5-min Rain = 0
KVP1 130751Z 13010KT M04/M09 A3027 RMK A01 T10371093  RH  065%=      5-min Rain = 0
KVP1 130752Z 13010KT M04/M09 A3027 RMK A01 T10381094  RH  065%=      5-min Rain = 0
KVP1 130753Z 13010KT M04/M09 A3026 RMK A01 T10381094  RH  065%=      5-min Rain = 0
KVP1 130754Z 13010KT M04/M09 A3026 RMK A01 T10391094  RH  065%=      5-min Rain = 0
KVP1 130755Z 13010KT M04/M10 A3026 RMK A01 T10401095  RH  065%=      5-min Rain = 0
KVP1 130756Z 13011KT M04/M10 A3026 RMK A01 T10401095  RH  066%=      5-min Rain = 0
KVP1 130757Z 13010KT M04/M10 A3026 RMK A01 T10401095  RH  066%=      5-min Rain = 0
KVP1 130758Z 13010KT M04/M10 A3026 RMK A01 T10411096  RH  066%=      5-min Rain = 0
KVP1 130759Z 13010KT M04/M10 A3026 RMK A01 T10421096  RH  066%=      5-min Rain = 0
KVP1 130800Z 13010KT M04/M10 A3026 RMK A01 T10431097  RH  066%=      5-min Rain = 0
KVP1 130801Z 13010KT M04/M10 A3026 RMK A01 T10431097  RH  066%=      5-min Rain = 0
KVP1 130802Z 13010KT M04/M10 A3026 RMK A01 T10441096  RH  067%=      5-min Rain = 0
KVP1 130803Z 13009KT M04/M10 A3026 RMK A01 T10441096  RH  067%=      5-min Rain = 0
KVP1 130804Z 13010KT M04/M10 A3026 RMK A01 T10441096  RH  067%=      5-min Rain = 0
KVP1 130805Z 13010KT M04/M10 A3026 RMK A01 T10441096  RH  067%=      5-min Rain = 0
KVP1 130806Z 13009KT M05/M10 A3026 RMK A01 T10451095  RH  068%=      5-min Rain = 0
KVP1 130807Z 13009KT M05/M10 A3026 RMK A01 T10451095  RH  068%=      5-min Rain = 0
KVP1 130808Z 13009KT M05/M10 A3026 RMK A01 T10451095  RH  068%=      5-min Rain = 0
KVP1 130809Z 13008KT M05/M10 A3026 RMK A01 T10461095  RH  069%=      5-min Rain = 0
KVP1 130810Z 12008KT M05/M10 A3026 RMK A01 T10471095  RH  069%=      5-min Rain = 0
KVP1 130811Z 12008KT M05/M10 A3026 RMK A01 T10471095  RH  069%=      5-min Rain = 0
KVP1 130812Z 12007KT M05/M10 A3026 RMK A01 T10471095  RH  069%=      5-min Rain = 0
KVP1 130813Z 12007KT M05/M09 A3026 RMK A01 T10471094  RH  070%=      5-min Rain = 0
KVP1 130814Z 12008KT M05/M09 A3026 RMK A01 T10481094  RH  070%=      5-min Rain = 0
KVP1 130815Z 12007KT M05/M09 A3026 RMK A01 T10481094  RH  070%=      5-min Rain = 0
KVP1 130816Z 12007KT M05/M09 A3026 RMK A01 T10491094  RH  071%=      5-min Rain = 0
KVP1 130817Z 12007KT M05/M09 A3026 RMK A01 T10491094  RH  071%=      5-min Rain = 0
KVP1 130818Z 12008KT M05/M09 A3026 RMK A01 T10491094  RH  071%=      5-min Rain = 0
KVP1 130819Z 12007KT M05/M09 A3026 RMK A01 T10491093  RH  071%=      5-min Rain = 0
KVP1 130820Z 12007KT M05/M09 A3026 RMK A01 T10501093  RH  072%=      5-min Rain = 0
KVP1 130821Z 12007KT M05/M09 A3026 RMK A01 T10501093  RH  072%=      5-min Rain = 0
KVP1 130822Z 12007KT M05/M09 A3026 RMK A01 T10501092  RH  072%=      5-min Rain = 0
KVP1 130823Z 12007KT M05/M09 A3026 RMK A01 T10501093  RH  072%=      5-min Rain = 0
KVP1 130824Z 12007KT M05/M09 A3026 RMK A01 T10511093  RH  072%=      5-min Rain = 0
KVP1 130825Z 12007KT M05/M09 A3026 RMK A01 T10511093  RH  072%=      5-min Rain = 0
KVP1 130826Z 12007KT M05/M09 A3026 RMK A01 T10511093  RH  073%=      5-min Rain = 0
KVP1 130827Z 12007KT M05/M09 A3027 RMK A01 T10511093  RH  073%=      5-min Rain = 0
KVP1 130828Z 12007KT M05/M09 A3026 RMK A01 T10511093  RH  073%=      5-min Rain = 0
KVP1 130829Z 12007KT M05/M09 A3026 RMK A01 T10511092  RH  073%=      5-min Rain = 0
KVP1 130830Z 11007KT M05/M09 A3026 RMK A01 T10511092  RH  073%=      5-min Rain = 0
KVP1 130831Z 11007KT M05/M09 A3026 RMK A01 T10521093  RH  073%=      5-min Rain = 0
KVP1 130832Z 12007KT M05/M09 A3026 RMK A01 T10521093  RH  073%=      5-min Rain = 0
KVP1 130833Z 11007KT M05/M09 A3026 RMK A01 T10511092  RH  073%=      5-min Rain = 0
KVP1 130834Z 11007KT M05/M09 A3026 RMK A01 T10521092  RH  073%=      5-min Rain = 0
KVP1 130835Z 12007KT M05/M09 A3026 RMK A01 T10521092  RH  073%=      5-min Rain = 0
KVP1 130836Z 12007KT M05/M09 A3026 RMK A01 T10521092  RH  073%=      5-min Rain = 0
KVP1 130837Z 12007KT M05/M09 A3026 RMK A01 T10531093  RH  073%=      5-min Rain = 0
KVP1 130838Z 12007KT M05/M09 A3026 RMK A01 T10541093  RH  074%=      5-min Rain = 0
KVP1 130839Z 12007KT M05/M09 A3026 RMK A01 T10541093  RH  074%=      5-min Rain = 0
KVP1 130840Z 12007KT M06/M09 A3026 RMK A01 T10551094  RH  074%=      5-min Rain = 0
KVP1 130841Z 12007KT M06/M09 A3026 RMK A01 T10551094  RH  074%=      5-min Rain = 0
KVP1 130842Z 12007KT M06/M09 A3026 RMK A01 T10561094  RH  074%=      5-min Rain = 0
KVP1 130843Z 12007KT M06/M09 A3026 RMK A01 T10561094  RH  075%=      5-min Rain = 0
KVP1 130844Z 12007KT M06/M09 A3026 RMK A01 T10571094  RH  075%=      5-min Rain = 0
KVP1 130845Z 12007KT M06/M10 A3026 RMK A01 T10581095  RH  075%=      5-min Rain = 0
KVP1 130846Z 12008KT M06/M10 A3026 RMK A01 T10581095  RH  075%=      5-min Rain = 0
KVP1 130847Z 12008KT M06/M10 A3026 RMK A01 T10591096  RH  075%=      5-min Rain = 0
KVP1 130848Z 12008KT M06/M10 A3026 RMK A01 T10601097  RH  075%=      5-min Rain = 0
KVP1 130849Z 12008KT M06/M10 A3026 RMK A01 T10601096  RH  076%=      5-min Rain = 0
KVP1 130850Z 12008KT M06/M10 A3026 RMK A01 T10611096  RH  076%=      5-min Rain = 0
KVP1 130851Z 13009KT M06/M10 A3026 RMK A01 T10611096  RH  076%=      5-min Rain = 0
KVP1 130852Z 13009KT M06/M10 A3026 RMK A01 T10611096  RH  076%=      5-min Rain = 0
KVP1 130853Z 13009KT M06/M10 A3026 RMK A01 T10611096  RH  076%=      5-min Rain = 0
KVP1 130854Z 13009KT M06/M10 A3026 RMK A01 T10621097  RH  076%=      5-min Rain = 0
KVP1 130855Z 13009KT M06/M10 A3026 RMK A01 T10621097  RH  076%=      5-min Rain = 0
KVP1 130856Z 13009KT M06/M10 A3026 RMK A01 T10621096  RH  076%=      5-min Rain = 0
KVP1 130857Z 13009KT M06/M10 A3026 RMK A01 T10611096  RH  077%=      5-min Rain = 0
KVP1 130858Z 13009KT M06/M10 A3026 RMK A01 T10611096  RH  077%=      5-min Rain = 0
KVP1 130859Z 13009KT M06/M10 A3026 RMK A01 T10611096  RH  076%=      5-min Rain = 0
KVP1 130900Z 13009KT M06/M10 A3026 RMK A01 T10611095  RH  076%=      5-min Rain = 0
KVP1 130901Z 12009KT M06/M10 A3026 RMK A01 T10601095  RH  076%=      5-min Rain = 0
KVP1 130902Z 13008KT M06/M10 A3026 RMK A01 T10601095  RH  076%=      5-min Rain = 0
KVP1 130903Z 12008KT M06/M09 A3026 RMK A01 T10601094  RH  076%=      5-min Rain = 0
KVP1 130904Z 13008KT M06/M09 A3026 RMK A01 T10591094  RH  076%=      5-min Rain = 0
KVP1 130905Z 12008KT M06/M10 A3026 RMK A01 T10591095  RH  076%=      5-min Rain = 0
KVP1 130906Z 12008KT M06/M09 A3026 RMK A01 T10591094  RH  077%=      5-min Rain = 0
KVP1 130907Z 12008KT M06/M09 A3026 RMK A01 T10581092  RH  077%=      5-min Rain = 0
KVP1 130908Z 12007KT M06/M09 A3026 RMK A01 T10581092  RH  077%=      5-min Rain = 0
KVP1 130909Z 12008KT M06/M09 A3025 RMK A01 T10571092  RH  077%=      5-min Rain = 0
KVP1 130910Z 12007KT M06/M09 A3025 RMK A01 T10571091  RH  077%=      5-min Rain = 0
KVP1 130911Z 12007KT M06/M09 A3025 RMK A01 T10561090  RH  077%=      5-min Rain = 0
KVP1 130912Z 12007KT M06/M09 A3025 RMK A01 T10551089  RH  077%=      5-min Rain = 0
KVP1 130913Z 12008KT M06/M09 A3025 RMK A01 T10551088  RH  077%=      5-min Rain = 0
KVP1 130914Z 12008KT M05/M09 A3025 RMK A01 T10541088  RH  077%=      5-min Rain = 0
KVP1 130915Z 12008KT M05/M09 A3025 RMK A01 T10531087  RH  077%=      5-min Rain = 0
KVP1 130916Z 12008KT M05/M09 A3026 RMK A01 T10531087  RH  077%=      5-min Rain = 0
KVP1 130917Z 12008KT M05/M09 A3026 RMK A01 T10521087  RH  077%=      5-min Rain = 0
KVP1 130918Z 12007KT M05/M09 A3026 RMK A01 T10521086  RH  077%=      5-min Rain = 0
KVP1 130919Z 12008KT M05/M09 A3026 RMK A01 T10511085  RH  077%=      5-min Rain = 0
KVP1 130920Z 12008KT M05/M09 A3026 RMK A01 T10511086  RH  077%=      5-min Rain = 0
KVP1 130921Z 12008KT M05/M09 A3026 RMK A01 T10511085  RH  077%=      5-min Rain = 0
KVP1 130922Z 12008KT M05/M09 A3026 RMK A01 T10511085  RH  077%=      5-min Rain = 0
KVP1 130923Z 12008KT M05/M09 A3026 RMK A01 T10511085  RH  077%=      5-min Rain = 0
KVP1 130924Z 12008KT M05/M09 A3026 RMK A01 T10511085  RH  077%=      5-min Rain = 0
KVP1 130925Z 12008KT M05/M09 A3026 RMK A01 T10511085  RH  077%=      5-min Rain = 0
KVP1 130926Z 13008KT M05/M09 A3026 RMK A01 T10511085  RH  077%=      5-min Rain = 0
KVP1 130927Z 13007KT M05/M09 A3026 RMK A01 T10521086  RH  077%=      5-min Rain = 0
KVP1 130928Z 13007KT M05/M09 A3026 RMK A01 T10521086  RH  077%=      5-min Rain = 0
KVP1 130929Z 13007KT M05/M09 A3026 RMK A01 T10531087  RH  077%=      5-min Rain = 0
KVP1 130930Z 13007KT M05/M09 A3026 RMK A01 T10531087  RH  077%=      5-min Rain = 0
KVP1 130931Z 13007KT M05/M09 A3026 RMK A01 T10541088  RH  077%=      5-min Rain = 0
KVP1 130932Z 13007KT M06/M09 A3026 RMK A01 T10551088  RH  077%=      5-min Rain = 0
KVP1 130933Z 13007KT M06/M09 A3026 RMK A01 T10551088  RH  077%=      5-min Rain = 0
KVP1 130934Z 13007KT M06/M09 A3026 RMK A01 T10561089  RH  077%=      5-min Rain = 0
KVP1 130935Z 13007KT M06/M09 A3026 RMK A01 T10561089  RH  078%=      5-min Rain = 0
KVP1 130936Z 13007KT M06/M09 A3026 RMK A01 T10561089  RH  078%=      5-min Rain = 0
KVP1 130937Z 13008KT M06/M09 A3026 RMK A01 T10571090  RH  078%=      5-min Rain = 0
KVP1 130938Z 13008KT M06/M09 A3026 RMK A01 T10571090  RH  078%=      5-min Rain = 0
KVP1 130939Z 13008KT M06/M09 A3026 RMK A01 T10581091  RH  078%=      5-min Rain = 0
KVP1 130940Z 13008KT M06/M09 A3026 RMK A01 T10581090  RH  078%=      5-min Rain = 0
KVP1 130941Z 13008KT M06/M09 A3026 RMK A01 T10591091  RH  078%=      5-min Rain = 0
KVP1 130942Z 13008KT M06/M09 A3026 RMK A01 T10591091  RH  078%=      5-min Rain = 0
KVP1 130943Z 13007KT M06/M09 A3026 RMK A01 T10591091  RH  078%=      5-min Rain = 0
KVP1 130944Z 13007KT M06/M09 A3026 RMK A01 T10591090  RH  079%=      5-min Rain = 0
KVP1 130945Z 13007KT M06/M09 A3026 RMK A01 T10591091  RH  079%=      5-min Rain = 0
KVP1 130946Z 13006KT M06/M09 A3026 RMK A01 T10591091  RH  079%=      5-min Rain = 0
KVP1 130947Z 14006KT M06/M09 A3026 RMK A01 T10591091  RH  079%=      5-min Rain = 0
KVP1 130948Z 14006KT M06/M09 A3027 RMK A01 T10591090  RH  079%=      5-min Rain = 0
KVP1 130949Z 13005KT M06/M09 A3027 RMK A01 T10591090  RH  079%=      5-min Rain = 0
KVP1 130950Z 13005KT M06/M09 A3027 RMK A01 T10601090  RH  079%=      5-min Rain = 0
KVP1 130951Z 14005KT M06/M09 A3027 RMK A01 T10591090  RH  079%=      5-min Rain = 0
KVP1 130952Z 14005KT M06/M09 A3027 RMK A01 T10591090  RH  079%=      5-min Rain = 0
KVP1 130953Z 14005KT M06/M09 A3027 RMK A01 T10601091  RH  079%=      5-min Rain = 0
KVP1 130954Z 14006KT M06/M09 A3027 RMK A01 T10601092  RH  079%=      5-min Rain = 0
KVP1 130955Z 14006KT M06/M09 A3027 RMK A01 T10611092  RH  079%=      5-min Rain = 0
KVP1 130956Z 14006KT M06/M09 A3027 RMK A01 T10611093  RH  078%=      5-min Rain = 0
KVP1 130957Z 14007KT M06/M09 A3027 RMK A01 T10621094  RH  078%=      5-min Rain = 0
KVP1 130958Z 14007KT M06/M10 A3027 RMK A01 T10631095  RH  078%=      5-min Rain = 0
KVP1 130959Z 14007KT M06/M10 A3026 RMK A01 T10641096  RH  078%=      5-min Rain = 0
KVP1 131000Z 14007KT M07/M10 A3026 RMK A01 T10651096  RH  078%=      5-min Rain = 0
KVP1 131001Z 14007KT M07/M10 A3026 RMK A01 T10661098  RH  078%=      5-min Rain = 0
KVP1 131002Z 14007KT M07/M10 A3026 RMK A01 T10681098  RH  079%=      5-min Rain = 0
KVP1 131003Z 14007KT M07/M10 A3026 RMK A01 T10681098  RH  079%=      5-min Rain = 0
KVP1 131004Z 14007KT M07/M10 A3026 RMK A01 T10691099  RH  079%=      5-min Rain = 0
KVP1 131005Z 14007KT M07/M10 A3026 RMK A01 T10691099  RH  080%=      5-min Rain = 0
KVP1 131006Z 14007KT M07/M10 A3026 RMK A01 T10701099  RH  080%=      5-min Rain = 0
KVP1 131007Z 14007KT M07/M10 A3026 RMK A01 T10701099  RH  080%=      5-min Rain = 0
KVP1 131008Z 14007KT M07/M10 A3026 RMK A01 T10701098  RH  080%=      5-min Rain = 0
KVP1 131009Z 14006KT M07/M10 A3026 RMK A01 T10701098  RH  081%=      5-min Rain = 0
KVP1 131010Z 14006KT M07/M10 A3026 RMK A01 T10701097  RH  081%=      5-min Rain = 0
KVP1 131011Z 14006KT M07/M10 A3026 RMK A01 T10691096  RH  081%=      5-min Rain = 0
KVP1 131012Z 14005KT M07/M10 A3026 RMK A01 T10691096  RH  081%=      5-min Rain = 0
KVP1 131013Z 15005KT M07/M10 A3026 RMK A01 T10691096  RH  081%=      5-min Rain = 0
KVP1 131014Z 15005KT M07/M10 A3027 RMK A01 T10681096  RH  081%=      5-min Rain = 0
KVP1 131015Z 14005KT M07/M10 A3027 RMK A01 T10691097  RH  080%=      5-min Rain = 0
KVP1 131016Z 14006KT M07/M10 A3027 RMK A01 T10681096  RH  080%=      5-min Rain = 0
KVP1 131017Z 14006KT M07/M10 A3026 RMK A01 T10681096  RH  080%=      5-min Rain = 0
KVP1 131018Z 14005KT M07/M10 A3026 RMK A01 T10671096  RH  080%=      5-min Rain = 0
KVP1 131019Z 13005KT M07/M10 A3026 RMK A01 T10671096  RH  080%=      5-min Rain = 0
KVP1 131020Z 13005KT M07/M10 A3026 RMK A01 T10671097  RH  080%=      5-min Rain = 0
KVP1 131021Z 13006KT M07/M10 A3026 RMK A01 T10671097  RH  079%=      5-min Rain = 0
KVP1 131022Z 13006KT M07/M10 A3026 RMK A01 T10671098  RH  079%=      5-min Rain = 0
KVP1 131023Z 13006KT M07/M10 A3026 RMK A01 T10681099  RH  079%=      5-min Rain = 0
KVP1 131024Z 13006KT M07/M10 A3026 RMK A01 T10681099  RH  079%=      5-min Rain = 0
KVP1 131025Z 13006KT M07/M10 A3026 RMK A01 T10691100  RH  079%=      5-min Rain = 0
KVP1 131026Z 13006KT M07/M10 A3027 RMK A01 T10701101  RH  079%=      5-min Rain = 0
KVP1 131027Z 14006KT M07/M10 A3027 RMK A01 T10701101  RH  079%=      5-min Rain = 0
KVP1 131028Z 14006KT M07/M10 A3027 RMK A01 T10701101  RH  079%=      5-min Rain = 0
KVP1 131029Z 14006KT M07/M10 A3027 RMK A01 T10711101  RH  079%=      5-min Rain = 0
KVP1 131030Z 14007KT M07/M10 A3027 RMK A01 T10721101  RH  079%=      5-min Rain = 0
KVP1 131031Z 14006KT M07/M10 A3027 RMK A01 T10721102  RH  079%=      5-min Rain = 0
KVP1 131032Z 14007KT M07/M10 A3027 RMK A01 T10731102  RH  079%=      5-min Rain = 0
KVP1 131033Z 14006KT M07/M10 A3027 RMK A01 T10731103  RH  079%=      5-min Rain = 0
KVP1 131034Z 14006KT M07/M10 A3027 RMK A01 T10741103  RH  079%=      5-min Rain = 0
KVP1 131035Z 14006KT M07/M10 A3027 RMK A01 T10741104  RH  080%=      5-min Rain = 0
KVP1 131036Z 14006KT M08/M10 A3027 RMK A01 T10751104  RH  080%=      5-min Rain = 0
KVP1 131037Z 13007KT M08/M10 A3027 RMK A01 T10751102  RH  081%=      5-min Rain = 0
KVP1 131038Z 13006KT M07/M10 A3027 RMK A01 T10741102  RH  081%=      5-min Rain = 0
KVP1 131039Z 14006KT M07/M10 A3027 RMK A01 T10741101  RH  081%=      5-min Rain = 0
KVP1 131040Z 14007KT M07/M10 A3027 RMK A01 T10741102  RH  081%=      5-min Rain = 0
KVP1 131041Z 13007KT M07/M10 A3027 RMK A01 T10741102  RH  080%=      5-min Rain = 0
KVP1 131042Z 14007KT M07/M10 A3027 RMK A01 T10741103  RH  080%=      5-min Rain = 0
KVP1 131043Z 14007KT M08/M10 A3027 RMK A01 T10751103  RH  080%=      5-min Rain = 0
KVP1 131044Z 14007KT M08/M10 A3027 RMK A01 T10751103  RH  080%=      5-min Rain = 0
KVP1 131045Z 14006KT M08/M10 A3027 RMK A01 T10761103  RH  081%=      5-min Rain = 0
KVP1 131046Z 14006KT M08/M10 A3027 RMK A01 T10761102  RH  081%=      5-min Rain = 0
KVP1 131047Z 14006KT M08/M10 A3027 RMK A01 T10751101  RH  082%=      5-min Rain = 0
KVP1 131048Z 14006KT M08/M10 A3027 RMK A01 T10751100  RH  082%=      5-min Rain = 0
KVP1 131049Z 14005KT M07/M10 A3027 RMK A01 T10741100  RH  082%=      5-min Rain = 0
KVP1 131050Z 14005KT M07/M10 A3027 RMK A01 T10741099  RH  082%=      5-min Rain = 0
KVP1 131051Z 14006KT M07/M10 A3027 RMK A01 T10741099  RH  082%=      5-min Rain = 0
KVP1 131052Z 14005KT M07/M10 A3027 RMK A01 T10731098  RH  083%=      5-min Rain = 0
KVP1 131053Z 15005KT M07/M10 A3027 RMK A01 T10721097  RH  082%=      5-min Rain = 0
KVP1 131054Z 14005KT M07/M10 A3027 RMK A01 T10731098  RH  082%=      5-min Rain = 0
KVP1 131055Z 14005KT M07/M10 A3027 RMK A01 T10731098  RH  082%=      5-min Rain = 0
KVP1 131056Z 14006KT M07/M10 A3027 RMK A01 T10731098  RH  082%=      5-min Rain = 0
KVP1 131057Z 14006KT M07/M10 A3027 RMK A01 T10721098  RH  082%=      5-min Rain = 0
KVP1 131058Z 14006KT M07/M10 A3027 RMK A01 T10721097  RH  082%=      5-min Rain = 0
KVP1 131059Z 14006KT M07/M10 A3027 RMK A01 T10721098  RH  082%=      5-min Rain = 0
KVP1 131100Z 14006KT M07/M10 A3027 RMK A01 T10711097  RH  082%=      5-min Rain = 0
KVP1 131101Z 15006KT M07/M10 A3027 RMK A01 T10711098  RH  081%=      5-min Rain = 0
KVP1 131102Z 15006KT M07/M10 A3027 RMK A01 T10711098  RH  081%=      5-min Rain = 0
KVP1 131103Z 14005KT M07/M10 A3027 RMK A01 T10711098  RH  081%=      5-min Rain = 0
KVP1 131104Z 14006KT M07/M10 A3027 RMK A01 T10721099  RH  081%=      5-min Rain = 0
KVP1 131105Z 14006KT M07/M10 A3027 RMK A01 T10721100  RH  081%=      5-min Rain = 0
KVP1 131106Z 14005KT M07/M10 A3027 RMK A01 T10721099  RH  081%=      5-min Rain = 0
KVP1 131107Z 14005KT M07/M10 A3027 RMK A01 T10721099  RH  081%=      5-min Rain = 0
KVP1 131108Z 14005KT M07/M10 A3027 RMK A01 T10721098  RH  082%=      5-min Rain = 0
KVP1 131109Z 14005KT M07/M10 A3027 RMK A01 T10711098  RH  082%=      5-min Rain = 0
KVP1 131110Z 14005KT M07/M10 A3027 RMK A01 T10711098  RH  081%=      5-min Rain = 0
KVP1 131111Z 13005KT M07/M10 A3027 RMK A01 T10711098  RH  081%=      5-min Rain = 0
KVP1 131112Z 13005KT M07/M10 A3026 RMK A01 T10711097  RH  081%=      5-min Rain = 0
KVP1 131113Z 13005KT M07/M10 A3026 RMK A01 T10701097  RH  082%=      5-min Rain = 0
KVP1 131114Z 13005KT M07/M10 A3026 RMK A01 T10701097  RH  082%=      5-min Rain = 0
KVP1 131115Z 12005KT M07/M10 A3026 RMK A01 T10701096  RH  082%=      5-min Rain = 0
KVP1 131116Z 13005KT M07/M10 A3026 RMK A01 T10691096  RH  082%=      5-min Rain = 0
KVP1 131117Z 13005KT M07/M10 A3026 RMK A01 T10691096  RH  082%=      5-min Rain = 0
KVP1 131118Z 12005KT M07/M10 A3026 RMK A01 T10701097  RH  081%=      5-min Rain = 0
KVP1 131119Z 13006KT M07/M10 A3026 RMK A01 T10711097  RH  081%=      5-min Rain = 0
KVP1 131120Z 13006KT M07/M10 A3026 RMK A01 T10711098  RH  081%=      5-min Rain = 0
KVP1 131121Z 13006KT M07/M10 A3026 RMK A01 T10721099  RH  081%=      5-min Rain = 0
KVP1 131122Z 13006KT M07/M10 A3026 RMK A01 T10731100  RH  081%=      5-min Rain = 0
KVP1 131123Z 12006KT M07/M10 A3026 RMK A01 T10741101  RH  081%=      5-min Rain = 0
KVP1 131124Z 13006KT M07/M10 A3026 RMK A01 T10741101  RH  081%=      5-min Rain = 0
KVP1 131125Z 13006KT M07/M10 A3026 RMK A01 T10741101  RH  081%=      5-min Rain = 0
KVP1 131126Z 13007KT M08/M10 A3026 RMK A01 T10751101  RH  082%=      5-min Rain = 0
KVP1 131127Z 13006KT M07/M10 A3026 RMK A01 T10741100  RH  082%=      5-min Rain = 0
KVP1 131128Z 13006KT M07/M10 A3026 RMK A01 T10741099  RH  082%=      5-min Rain = 0
KVP1 131129Z 13006KT M07/M10 A3026 RMK A01 T10741099  RH  082%=      5-min Rain = 0
KVP1 131130Z 13006KT M07/M10 A3026 RMK A01 T10741099  RH  082%=      5-min Rain = 0
KVP1 131131Z 13006KT M07/M10 A3026 RMK A01 T10731098  RH  082%=      5-min Rain = 0
KVP1 131132Z 12007KT M07/M10 A3026 RMK A01 T10731099  RH  082%=      5-min Rain = 0
KVP1 131133Z 12007KT M07/M10 A3026 RMK A01 T10731098  RH  082%=      5-min Rain = 0
KVP1 131134Z 12007KT M07/M10 A3026 RMK A01 T10731098  RH  082%=      5-min Rain = 0
KVP1 131135Z 12006KT M07/M10 A3026 RMK A01 T10721098  RH  082%=      5-min Rain = 0
KVP1 131136Z 12006KT M07/M10 A3026 RMK A01 T10731099  RH  082%=      5-min Rain = 0
KVP1 131137Z 12006KT M07/M10 A3026 RMK A01 T10731099  RH  082%=      5-min Rain = 0
KVP1 131138Z 12005KT M07/M10 A3026 RMK A01 T10731099  RH  082%=      5-min Rain = 0
KVP1 131139Z 11005KT M07/M10 A3027 RMK A01 T10731098  RH  082%=      5-min Rain = 0
KVP1 131140Z 11006KT M07/M10 A3027 RMK A01 T10731098  RH  083%=      5-min Rain = 0
KVP1 131141Z 11005KT M07/M10 A3027 RMK A01 T10721097  RH  083%=      5-min Rain = 0
KVP1 131142Z 10005KT M07/M10 A3027 RMK A01 T10721096  RH  083%=      5-min Rain = 0
KVP1 131143Z 10004KT M07/M10 A3027 RMK A01 T10721097  RH  083%=      5-min Rain = 0
KVP1 131144Z 10005KT M07/M10 A3027 RMK A01 T10731099  RH  081%=      5-min Rain = 0
KVP1 131145Z 10005KT M08/M10 A3027 RMK A01 T10751102  RH  081%=      5-min Rain = 0
KVP1 131146Z 10005KT M08/M10 A3027 RMK A01 T10751102  RH  081%=      5-min Rain = 0
KVP1 131147Z 09005KT M08/M10 A3027 RMK A01 T10751102  RH  081%=      5-min Rain = 0
KVP1 131148Z 09005KT M08/M10 A3027 RMK A01 T10751102  RH  081%=      5-min Rain = 0
KVP1 131149Z 08005KT M08/M10 A3026 RMK A01 T10751101  RH  082%=      5-min Rain = 0
KVP1 131150Z 09005KT M07/M10 A3026 RMK A01 T10731097  RH  083%=      5-min Rain = 0
KVP1 131151Z 09005KT M07/M10 A3026 RMK A01 T10721095  RH  084%=      5-min Rain = 0
KVP1 131152Z 09006KT M07/M09 A3026 RMK A01 T10711093  RH  084%=      5-min Rain = 0
KVP1 131153Z 09006KT M07/M09 A3026 RMK A01 T10711094  RH  084%=      5-min Rain = 0
KVP1 131154Z 10006KT M07/M10 A3026 RMK A01 T10721096  RH  083%=      5-min Rain = 0
KVP1 131155Z 10007KT M07/M10 A3026 RMK A01 T10741098  RH  083%=      5-min Rain = 0
KVP1 131156Z 10007KT M07/M10 A3026 RMK A01 T10741096  RH  084%=      5-min Rain = 0
KVP1 131157Z 10007KT M07/M10 A3026 RMK A01 T10731096  RH  084%=      5-min Rain = 0
KVP1 131158Z 10007KT M07/M10 A3026 RMK A01 T10741097  RH  083%=      5-min Rain = 0
KVP1 131159Z 10007KT M07/M10 A3026 RMK A01 T10741099  RH  082%=      5-min Rain = 0
KVP1 131200Z 10007KT M08/M10 A3026 RMK A01 T10751101  RH  082%=      5-min Rain = 0
KVP1 131201Z 10006KT M08/M10 A3027 RMK A01 T10751101  RH  082%=      5-min Rain = 0
KVP1 131202Z 10007KT M08/M10 A3027 RMK A01 T10751099  RH  083%=      5-min Rain = 0
KVP1 131203Z 09006KT M07/M10 A3027 RMK A01 T10741098  RH  083%=      5-min Rain = 0
KVP1 131204Z 10006KT M07/M10 A3027 RMK A01 T10731096  RH  084%=      5-min Rain = 0
KVP1 131205Z 10007KT M07/M09 A3027 RMK A01 T10721094  RH  084%=      5-min Rain = 0
KVP1 131206Z 10007KT M07/M09 A3027 RMK A01 T10711093  RH  084%=      5-min Rain = 0
KVP1 131207Z 10007KT M07/M09 A3027 RMK A01 T10701093  RH  084%=      5-min Rain = 0
KVP1 131208Z 10007KT M07/M09 A3027 RMK A01 T10701093  RH  084%=      5-min Rain = 0
KVP1 131209Z 10007KT M07/M09 A3027 RMK A01 T10691093  RH  083%=      5-min Rain = 0
KVP1 131210Z 10006KT M07/M09 A3027 RMK A01 T10691093  RH  083%=      5-min Rain = 0
KVP1 131211Z 10007KT M07/M09 A3027 RMK A01 T10691094  RH  083%=      5-min Rain = 0
KVP1 131212Z 10007KT M07/M09 A3027 RMK A01 T10691094  RH  083%=      5-min Rain = 0
KVP1 131213Z 10006KT M07/M09 A3027 RMK A01 T10691094  RH  083%=      5-min Rain = 0
KVP1 131214Z 11007KT M07/M09 A3027 RMK A01 T10691094  RH  083%=      5-min Rain = 0
KVP1 131215Z 11007KT M07/M09 A3027 RMK A01 T10691094  RH  083%=      5-min Rain = 0
KVP1 131216Z 11007KT M07/M09 A3027 RMK A01 T10691094  RH  082%=      5-min Rain = 0
KVP1 131217Z 11007KT M07/M09 A3027 RMK A01 T10691094  RH  083%=      5-min Rain = 0
KVP1 131218Z 11007KT M07/M09 A3027 RMK A01 T10691093  RH  083%=      5-min Rain = 0
KVP1 131219Z 11007KT M07/M09 A3027 RMK A01 T10691093  RH  084%=      5-min Rain = 0
KVP1 131220Z 11007KT M07/M09 A3027 RMK A01 T10691092  RH  084%=      5-min Rain = 0
KVP1 131221Z 11006KT M07/M09 A3027 RMK A01 T10681091  RH  084%=      5-min Rain = 0
KVP1 131222Z 11007KT M07/M09 A3027 RMK A01 T10681090  RH  084%=      5-min Rain = 0
KVP1 131223Z 11006KT M07/M09 A3027 RMK A01 T10671089  RH  084%=      5-min Rain = 0
KVP1 131224Z 11006KT M07/M09 A3027 RMK A01 T10671090  RH  084%=      5-min Rain = 0
KVP1 131225Z 11006KT M07/M09 A3027 RMK A01 T10661089  RH  084%=      5-min Rain = 0
KVP1 131226Z 11006KT M07/M09 A3027 RMK A01 T10661089  RH  084%=      5-min Rain = 0
KVP1 131227Z 11006KT M07/M09 A3027 RMK A01 T10661089  RH  083%=      5-min Rain = 0
KVP1 131228Z 11006KT M07/M09 A3027 RMK A01 T10661090  RH  083%=      5-min Rain = 0
KVP1 131229Z 11006KT M07/M09 A3028 RMK A01 T10661090  RH  083%=      5-min Rain = 0
KVP1 131230Z 11006KT M07/M09 A3028 RMK A01 T10661090  RH  083%=      5-min Rain = 0
KVP1 131231Z 11006KT M07/M09 A3028 RMK A01 T10671091  RH  083%=      5-min Rain = 0
KVP1 131232Z 11006KT M07/M09 A3028 RMK A01 T10671091  RH  083%=      5-min Rain = 0
KVP1 131233Z 11006KT M07/M09 A3028 RMK A01 T10661091  RH  083%=      5-min Rain = 0
KVP1 131234Z 11006KT M07/M09 A3028 RMK A01 T10671092  RH  083%=      5-min Rain = 0
KVP1 131235Z 11006KT M07/M09 A3028 RMK A01 T10671092  RH  083%=      5-min Rain = 0
KVP1 131236Z 11006KT M07/M09 A3028 RMK A01 T10681093  RH  083%=      5-min Rain = 0
KVP1 131237Z 11006KT M07/M09 A3028 RMK A01 T10681093  RH  083%=      5-min Rain = 0
KVP1 131238Z 12006KT M07/M09 A3028 RMK A01 T10681092  RH  083%=      5-min Rain = 0
KVP1 131239Z 12006KT M07/M09 A3028 RMK A01 T10681093  RH  083%=      5-min Rain = 0
KVP1 131240Z 12006KT M07/M09 A3028 RMK A01 T10681093  RH  083%=      5-min Rain = 0
KVP1 131241Z 12006KT M07/M09 A3028 RMK A01 T10691093  RH  083%=      5-min Rain = 0
KVP1 131242Z 12006KT M07/M09 A3028 RMK A01 T10681092  RH  083%=      5-min Rain = 0
KVP1 131243Z 12007KT M07/M09 A3028 RMK A01 T10691093  RH  083%=      5-min Rain = 0
KVP1 131244Z 13007KT M07/M09 A3028 RMK A01 T10691093  RH  083%=      5-min Rain = 0
KVP1 131245Z 13007KT M07/M09 A3028 RMK A01 T10691094  RH  083%=      5-min Rain = 0
KVP1 131246Z 13007KT M07/M09 A3028 RMK A01 T10701094  RH  083%=      5-min Rain = 0
KVP1 131247Z 13007KT M07/M09 A3028 RMK A01 T10701094  RH  083%=      5-min Rain = 0
KVP1 131248Z 13007KT M07/M09 A3028 RMK A01 T10711094  RH  084%=      5-min Rain = 0
KVP1 131249Z 13007KT M07/M09 A3028 RMK A01 T10711094  RH  084%=      5-min Rain = 0
KVP1 131250Z 14007KT M07/M09 A3028 RMK A01 T10711094  RH  084%=      5-min Rain = 0
KVP1 131251Z 14008KT M07/M10 A3028 RMK A01 T10721095  RH  084%=      5-min Rain = 0
KVP1 131252Z 14008KT M07/M10 A3028 RMK A01 T10721095  RH  084%=      5-min Rain = 0
KVP1 131253Z 14008KT M07/M10 A3028 RMK A01 T10721095  RH  084%=      5-min Rain = 0
KVP1 131254Z 14008KT M07/M09 A3028 RMK A01 T10731094  RH  084%=      5-min Rain = 0
KVP1 131255Z 14008KT M07/M09 A3028 RMK A01 T10731094  RH  085%=      5-min Rain = 0
KVP1 131256Z 14007KT M07/M09 A3028 RMK A01 T10731094  RH  085%=      5-min Rain = 0
KVP1 131257Z 15007KT M07/M09 A3028 RMK A01 T10731094  RH  085%=      5-min Rain = 0
KVP1 131258Z 14007KT M07/M09 A3028 RMK A01 T10721094  RH  085%=      5-min Rain = 0
KVP1 131259Z 14007KT M07/M09 A3028 RMK A01 T10731094  RH  084%=      5-min Rain = 0
KVP1 131300Z 14007KT M07/M09 A3028 RMK A01 T10721094  RH  084%=      5-min Rain = 0
KVP1 131301Z 14007KT M07/M09 A3028 RMK A01 T10721094  RH  084%=      5-min Rain = 0
KVP1 131302Z 14007KT M07/M09 A3028 RMK A01 T10721094  RH  084%=      5-min Rain = 0
KVP1 131303Z 15007KT M07/M09 A3028 RMK A01 T10721094  RH  084%=      5-min Rain = 0
KVP1 131304Z 15007KT M07/M09 A3028 RMK A01 T10711093  RH  084%=      5-min Rain = 0
KVP1 131305Z 15007KT M07/M09 A3028 RMK A01 T10711093  RH  084%=      5-min Rain = 0
KVP1 131306Z 15007KT M07/M09 A3028 RMK A01 T10711093  RH  084%=      5-min Rain = 0
KVP1 131307Z 15007KT M07/M09 A3028 RMK A01 T10711093  RH  084%=      5-min Rain = 0
KVP1 131308Z 16007KT M07/M09 A3029 RMK A01 T10711093  RH  084%=      5-min Rain = 0
KVP1 131309Z 16007KT M07/M09 A3029 RMK A01 T10701092  RH  085%=      5-min Rain = 0
KVP1 131310Z 16008KT M07/M09 A3029 RMK A01 T10691090  RH  085%=      5-min Rain = 0
KVP1 131311Z 16008KT M07/M09 A3028 RMK A01 T10681089  RH  086%=      5-min Rain = 0
KVP1 131312Z 16008KT M07/M09 A3028 RMK A01 T10681088  RH  086%=      5-min Rain = 0
KVP1 131313Z 16008KT M07/M09 A3028 RMK A01 T10671088  RH  085%=      5-min Rain = 0
KVP1 131314Z 16009KT M07/M09 A3028 RMK A01 T10671087  RH  086%=      5-min Rain = 0
KVP1 131315Z 16009KT M07/M09 A3028 RMK A01 T10661086  RH  086%=      5-min Rain = 0
KVP1 131316Z 16009KT M07/M09 A3028 RMK A01 T10651085  RH  086%=      5-min Rain = 0
KVP1 131317Z 16009KT M06/M08 A3028 RMK A01 T10631083  RH  086%=      5-min Rain = 0
KVP1 131318Z 16009KT M06/M08 A3028 RMK A01 T10621082  RH  086%=      5-min Rain = 0
KVP1 131319Z 16009KT M06/M08 A3028 RMK A01 T10611081  RH  086%=      5-min Rain = 0
KVP1 131320Z 16008KT M06/M08 A3028 RMK A01 T10601080  RH  086%=      5-min Rain = 0
KVP1 131321Z 16008KT M06/M08 A3028 RMK A01 T10591079  RH  085%=      5-min Rain = 0
KVP1 131322Z 16008KT M06/M08 A3028 RMK A01 T10581078  RH  085%=      5-min Rain = 0
KVP1 131323Z 16009KT M06/M08 A3028 RMK A01 T10571078  RH  085%=      5-min Rain = 0
KVP1 131324Z 16009KT M06/M08 A3028 RMK A01 T10561077  RH  085%=      5-min Rain = 0
KVP1 131325Z 16008KT M06/M08 A3028 RMK A01 T10561077  RH  085%=      5-min Rain = 0
KVP1 131326Z 16009KT M06/M08 A3028 RMK A01 T10551076  RH  085%=      5-min Rain = 0
KVP1 131327Z 16009KT M06/M08 A3028 RMK A01 T10551076  RH  085%=      5-min Rain = 0
KVP1 131328Z 16009KT M05/M08 A3028 RMK A01 T10541075  RH  085%=      5-min Rain = 0
KVP1 131329Z 16010KT M05/M08 A3028 RMK A01 T10541075  RH  085%=      5-min Rain = 0
KVP1 131330Z 16011KT M05/M08 A3028 RMK A01 T10531075  RH  085%=      5-min Rain = 0
KVP1 131331Z 15011KT M05/M08 A3028 RMK A01 T10531075  RH  085%=      5-min Rain = 0
KVP1 131332Z 16011KT M05/M08 A3028 RMK A01 T10531075  RH  084%=      5-min Rain = 0
KVP1 131333Z 16011KT M05/M08 A3028 RMK A01 T10531076  RH  084%=      5-min Rain = 0
KVP1 131334Z 16010KT M05/M08 A3028 RMK A01 T10531076  RH  084%=      5-min Rain = 0
KVP1 131335Z 16011KT M05/M08 A3028 RMK A01 T10531075  RH  084%=      5-min Rain = 0
KVP1 131336Z 16010KT M05/M08 A3028 RMK A01 T10521075  RH  084%=      5-min Rain = 0
KVP1 131337Z 16010KT M05/M08 A3028 RMK A01 T10521075  RH  084%=      5-min Rain = 0
KVP1 131338Z 16010KT M05/M08 A3028 RMK A01 T10531076  RH  084%=      5-min Rain = 0
KVP1 131339Z 16009KT M05/M08 A3028 RMK A01 T10521075  RH  084%=      5-min Rain = 0
KVP1 131340Z 16009KT M05/M08 A3028 RMK A01 T10521075  RH  084%=      5-min Rain = 0
KVP1 131341Z 16009KT M05/M08 A3028 RMK A01 T10521076  RH  083%=      5-min Rain = 0
KVP1 131342Z 16009KT M05/M08 A3028 RMK A01 T10521076  RH  083%=      5-min Rain = 0
KVP1 131343Z 16009KT M05/M08 A3028 RMK A01 T10511076  RH  083%=      5-min Rain = 0
KVP1 131344Z 16008KT M05/M08 A3028 RMK A01 T10511076  RH  083%=      5-min Rain = 0
KVP1 131345Z 16008KT M05/M08 A3028 RMK A01 T10521077  RH  083%=      5-min Rain = 0
KVP1 131346Z 15008KT M05/M08 A3028 RMK A01 T10521077  RH  082%=      5-min Rain = 0
KVP1 131347Z 16007KT M05/M08 A3028 RMK A01 T10521077  RH  082%=      5-min Rain = 0
KVP1 131348Z 16007KT M05/M08 A3028 RMK A01 T10521077  RH  082%=      5-min Rain = 0
KVP1 131349Z 16007KT M05/M08 A3028 RMK A01 T10521077  RH  082%=      5-min Rain = 0
KVP1 131350Z 16006KT M05/M08 A3029 RMK A01 T10521077  RH  082%=      5-min Rain = 0
KVP1 131351Z 16006KT M05/M08 A3029 RMK A01 T10521078  RH  082%=      5-min Rain = 0
KVP1 131352Z 15007KT M05/M08 A3029 RMK A01 T10521078  RH  082%=      5-min Rain = 0
KVP1 131353Z 16007KT M05/M08 A3029 RMK A01 T10521078  RH  082%=      5-min Rain = 0
KVP1 131354Z 15007KT M05/M08 A3029 RMK A01 T10521078  RH  082%=      5-min Rain = 0
KVP1 131355Z 15007KT M05/M08 A3029 RMK A01 T10521078  RH  082%=      5-min Rain = 0
KVP1 131356Z 16007KT M05/M08 A3029 RMK A01 T10521078  RH  082%=      5-min Rain = 0
KVP1 131357Z 16007KT M05/M08 A3029 RMK A01 T10521077  RH  082%=      5-min Rain = 0
KVP1 131358Z 16007KT M05/M08 A3029 RMK A01 T10511077  RH  082%=      5-min Rain = 0
KVP1 131359Z 16007KT M05/M08 A3029 RMK A01 T10511076  RH  083%=      5-min Rain = 0
KVP1 131400Z 16007KT M05/M08 A3029 RMK A01 T10501075  RH  083%=      5-min Rain = 0
KVP1 131401Z 16007KT M05/M08 A3029 RMK A01 T10501075  RH  083%=      5-min Rain = 0
KVP1 131402Z 16006KT M05/M07 A3029 RMK A01 T10491074  RH  083%=      5-min Rain = 0
KVP1 131403Z 15006KT M05/M07 A3029 RMK A01 T10481073  RH  083%=      5-min Rain = 0
KVP1 131404Z 16006KT M05/M07 A3029 RMK A01 T10471072  RH  083%=      5-min Rain = 0
KVP1 131405Z 16006KT M05/M07 A3029 RMK A01 T10471072  RH  083%=      5-min Rain = 0
KVP1 131406Z 16006KT M05/M07 A3029 RMK A01 T10461071  RH  083%=      5-min Rain = 0
KVP1 131407Z 16005KT M05/M07 A3029 RMK A01 T10461071  RH  082%=      5-min Rain = 0
KVP1 131408Z 16005KT M05/M07 A3029 RMK A01 T10451071  RH  082%=      5-min Rain = 0
KVP1 131409Z 16005KT M04/M07 A303 RMK A01 T10441070  RH  082%=      5-min Rain = 0
KVP1 131410Z 15004KT M04/M07 A303 RMK A01 T10441070  RH  082%=      5-min Rain = 0
KVP1 131411Z 16004KT M04/M07 A303 RMK A01 T10431070  RH  082%=      5-min Rain = 0
KVP1 131412Z 16004KT M04/M07 A303 RMK A01 T10431069  RH  082%=      5-min Rain = 0
KVP1 131413Z 16003KT M04/M07 A303 RMK A01 T10421069  RH  082%=      5-min Rain = 0
KVP1 131414Z 16004KT M04/M07 A303 RMK A01 T10421068  RH  082%=      5-min Rain = 0
KVP1 131415Z 16004KT M04/M07 A303 RMK A01 T10411068  RH  082%=      5-min Rain = 0
KVP1 131416Z 17003KT M04/M07 A303 RMK A01 T10411068  RH  082%=      5-min Rain = 0
KVP1 131417Z 17003KT M04/M07 A303 RMK A01 T10401068  RH  081%=      5-min Rain = 0
KVP1 131418Z 17004KT M04/M07 A303 RMK A01 T10401067  RH  081%=      5-min Rain = 0
KVP1 131419Z 17004KT M04/M07 A303 RMK A01 T10391066  RH  081%=      5-min Rain = 0
KVP1 131420Z 16004KT M04/M07 A303 RMK A01 T10391066  RH  081%=      5-min Rain = 0
KVP1 131421Z 16003KT M04/M07 A303 RMK A01 T10381066  RH  081%=      5-min Rain = 0
KVP1 131422Z 17003KT M04/M07 A303 RMK A01 T10381066  RH  081%=      5-min Rain = 0
KVP1 131423Z 17003KT M04/M07 A303 RMK A01 T10371066  RH  081%=      5-min Rain = 0
KVP1 131424Z 17002KT M04/M07 A303 RMK A01 T10371066  RH  080%=      5-min Rain = 0
KVP1 131425Z 17002KT M04/M07 A303 RMK A01 T10361065  RH  080%=      5-min Rain = 0
KVP1 131426Z 16003KT M04/M07 A303 RMK A01 T10351065  RH  080%=      5-min Rain = 0
KVP1 131427Z 17003KT M04/M07 A303 RMK A01 T10351065  RH  080%=      5-min Rain = 0
KVP1 131428Z 17004KT M03/M06 A303 RMK A01 T10341064  RH  080%=      5-min Rain = 0
KVP1 131429Z 16004KT M03/M06 A303 RMK A01 T10331063  RH  080%=      5-min Rain = 0
KVP1 131430Z 17004KT M03/M06 A303 RMK A01 T10321063  RH  079%=      5-min Rain = 0
KVP1 131431Z 17004KT M03/M06 A303 RMK A01 T10311062  RH  079%=      5-min Rain = 0
KVP1 131432Z 16005KT M03/M06 A303 RMK A01 T10311062  RH  079%=      5-min Rain = 0
KVP1 131433Z 17005KT M03/M06 A303 RMK A01 T10301062  RH  079%=      5-min Rain = 0
KVP1 131434Z 17005KT M03/M06 A303 RMK A01 T10291062  RH  078%=      5-min Rain = 0
KVP1 131435Z 17004KT M03/M06 A303 RMK A01 T10281062  RH  078%=      5-min Rain = 0
KVP1 131436Z 17004KT M03/M06 A303 RMK A01 T10271061  RH  078%=      5-min Rain = 0
KVP1 131437Z 18004KT M03/M06 A303 RMK A01 T10271061  RH  077%=      5-min Rain = 0
KVP1 131438Z 18004KT M03/M06 A303 RMK A01 T10261060  RH  077%=      5-min Rain = 0
KVP1 131439Z 17005KT M03/M06 A303 RMK A01 T10251060  RH  077%=      5-min Rain = 0
KVP1 131440Z 18004KT M02/M06 A303 RMK A01 T10241060  RH  076%=      5-min Rain = 0
KVP1 131441Z 19004KT M02/M06 A3031 RMK A01 T10241060  RH  076%=      5-min Rain = 0
KVP1 131442Z 18005KT M02/M06 A3031 RMK A01 T10231060  RH  076%=      5-min Rain = 0
KVP1 131443Z 17005KT M02/M06 A3031 RMK A01 T10231061  RH  076%=      5-min Rain = 0
KVP1 131444Z 18005KT M02/M06 A3031 RMK A01 T10231061  RH  075%=      5-min Rain = 0
KVP1 131445Z 17005KT M02/M06 A3031 RMK A01 T10231061  RH  075%=      5-min Rain = 0
KVP1 131446Z 17005KT M02/M06 A3031 RMK A01 T10231061  RH  075%=      5-min Rain = 0
KVP1 131447Z 17006KT M02/M06 A3031 RMK A01 T10231061  RH  075%=      5-min Rain = 0
KVP1 131448Z 17005KT M02/M06 A3031 RMK A01 T10221060  RH  075%=      5-min Rain = 0
KVP1 131449Z 17005KT M02/M06 A3031 RMK A01 T10211059  RH  076%=      5-min Rain = 0
KVP1 131450Z 18005KT M02/M06 A3031 RMK A01 T10201057  RH  076%=      5-min Rain = 0
KVP1 131451Z 17006KT M02/M06 A3031 RMK A01 T10181056  RH  075%=      5-min Rain = 0
KVP1 131452Z 17006KT M02/M06 A3031 RMK A01 T10171056  RH  075%=      5-min Rain = 0
KVP1 131453Z 17003KT M02/M06 A3031 RMK A01 T10171056  RH  075%=      5-min Rain = 0
KVP1 131454Z 17005KT M02/M06 A3031 RMK A01 T10161055  RH  074%=      5-min Rain = 0
KVP1 131455Z 17005KT M02/M06 A3031 RMK A01 T10151055  RH  074%=      5-min Rain = 0
KVP1 131456Z 17006KT M01/M06 A3031 RMK A01 T10141055  RH  074%=      5-min Rain = 0
KVP1 131457Z 17005KT M01/M06 A3031 RMK A01 T10141057  RH  073%=      5-min Rain = 0
KVP1 131458Z 17006KT M01/M06 A3031 RMK A01 T10141057  RH  073%=      5-min Rain = 0
KVP1 131459Z 17006KT M01/M06 A3031 RMK A01 T10141056  RH  073%=      5-min Rain = 0
KVP1 131500Z 17005KT M01/M06 A3031 RMK A01 T10131055  RH  073%=      5-min Rain = 0
KVP1 131501Z 17006KT M01/M06 A3031 RMK A01 T10121055  RH  072%=      5-min Rain = 0
KVP1 131502Z 16006KT M01/M06 A3031 RMK A01 T10121056  RH  072%=      5-min Rain = 0
KVP1 131503Z 16005KT M01/M06 A3031 RMK A01 T10121055  RH  072%=      5-min Rain = 0
KVP1 131504Z 16005KT M01/M05 A3031 RMK A01 T10111054  RH  072%=      5-min Rain = 0
KVP1 131505Z 17006KT M01/M05 A3031 RMK A01 T10101053  RH  072%=      5-min Rain = 0
KVP1 131506Z 16006KT M01/M05 A3031 RMK A01 T10091053  RH  072%=      5-min Rain = 0
KVP1 131507Z 16006KT M01/M05 A3031 RMK A01 T10081052  RH  072%=      5-min Rain = 0
KVP1 131508Z 17006KT M01/M05 A3031 RMK A01 T10071052  RH  072%=      5-min Rain = 0
KVP1 131509Z 16006KT M01/M05 A3031 RMK A01 T10061051  RH  072%=      5-min Rain = 0
KVP1 131510Z 16006KT M01/M05 A3031 RMK A01 T10051050  RH  072%=      5-min Rain = 0
KVP1 131511Z 16007KT M00/M05 A3031 RMK A01 T10041049  RH  071%=      5-min Rain = 0
KVP1 131512Z 16006KT M00/M05 A3031 RMK A01 T10031049  RH  071%=      5-min Rain = 0
KVP1 131513Z 16008KT M00/M05 A3031 RMK A01 T10021048  RH  071%=      5-min Rain = 0
KVP1 131514Z 16006KT M00/M05 A3031 RMK A01 T10011047  RH  071%=      5-min Rain = 0
KVP1 131515Z 16007KT 00/M05 A3031 RMK A01 T00011046  RH  071%=      5-min Rain = 0
KVP1 131516Z 15009KT 00/M05 A3031 RMK A01 T00021046  RH  070%=      5-min Rain = 0
KVP1 131517Z 15008KT 00/M05 A3031 RMK A01 T00021046  RH  070%=      5-min Rain = 0
KVP1 131518Z 16006KT 00/M05 A3031 RMK A01 T00021046  RH  070%=      5-min Rain = 0
KVP1 131519Z 16007KT 00/M05 A3031 RMK A01 T00031045  RH  070%=      5-min Rain = 0
KVP1 131520Z 16007KT 00/M05 A3031 RMK A01 T00041046  RH  069%=      5-min Rain = 0
KVP1 131521Z 15009KT 00/M05 A3031 RMK A01 T00041046  RH  069%=      5-min Rain = 0
KVP1 131522Z 16007KT 00/M05 A3031 RMK A01 T00031046  RH  069%=      5-min Rain = 0
KVP1 131523Z 16008KT 00/M05 A3031 RMK A01 T00031046  RH  070%=      5-min Rain = 0
KVP1 131524Z 16009KT 00/M05 A3031 RMK A01 T00031046  RH  070%=      5-min Rain = 0
KVP1 131525Z 16009KT 00/M05 A3031 RMK A01 T00021047  RH  070%=      5-min Rain = 0
KVP1 131526Z 15008KT 00/M05 A3031 RMK A01 T00021047  RH  070%=      5-min Rain = 0
KVP1 131527Z 15008KT 00/M05 A3031 RMK A01 T00031046  RH  070%=      5-min Rain = 0
KVP1 131528Z 16010KT 00/M05 A3031 RMK A01 T00041045  RH  070%=      5-min Rain = 0
KVP1 131529Z 16010KT 01/M05 A3032 RMK A01 T00051046  RH  069%=      5-min Rain = 0
KVP1 131530Z 16008KT 01/M05 A3032 RMK A01 T00051046  RH  069%=      5-min Rain = 0
KVP1 131531Z 16008KT 00/M05 A3032 RMK A01 T00041046  RH  069%=      5-min Rain = 0
KVP1 131532Z 16008KT 01/M05 A3032 RMK A01 T00051045  RH  069%=      5-min Rain = 0
KVP1 131533Z 16006KT 01/M04 A3032 RMK A01 T00061044  RH  069%=      5-min Rain = 0
KVP1 131534Z 17005KT 01/M04 A3032 RMK A01 T00071044  RH  069%=      5-min Rain = 0
KVP1 131535Z 16008KT 01/M04 A3032 RMK A01 T00081044  RH  068%=      5-min Rain = 0
KVP1 131536Z 16008KT 01/M05 A3032 RMK A01 T00071045  RH  068%=      5-min Rain = 0
KVP1 131537Z 16008KT 01/M05 A3032 RMK A01 T00071045  RH  068%=      5-min Rain = 0
KVP1 131538Z 16007KT 01/M05 A3032 RMK A01 T00071045  RH  068%=      5-min Rain = 0
KVP1 131539Z 15007KT 01/M05 A3032 RMK A01 T00071045  RH  068%=      5-min Rain = 0
KVP1 131540Z 16008KT 01/M05 A3032 RMK A01 T00071045  RH  068%=      5-min Rain = 0
KVP1 131541Z 17007KT 01/M05 A3032 RMK A01 T00071045  RH  068%=      5-min Rain = 0
KVP1 131542Z 17006KT 01/M05 A3032 RMK A01 T00081045  RH  068%=      5-min Rain = 0
KVP1 131543Z 17009KT 01/M05 A3032 RMK A01 T00081045  RH  068%=      5-min Rain = 0
KVP1 131544Z 17009KT 01/M05 A3032 RMK A01 T00091046  RH  067%=      5-min Rain = 0
KVP1 131545Z 17009KT 01/M05 A3032 RMK A01 T00091046  RH  067%=      5-min Rain = 0
KVP1 131546Z 18007KT 01/M05 A3032 RMK A01 T00091046  RH  067%=      5-min Rain = 0
KVP1 131547Z 18007KT 01/M05 A3032 RMK A01 T00091046  RH  067%=      5-min Rain = 0
KVP1 131548Z 18008KT 01/M05 A3032 RMK A01 T00101045  RH  066%=      5-min Rain = 0
KVP1 131549Z 18008KT 01/M05 A3032 RMK A01 T00111046  RH  066%=      5-min Rain = 0
KVP1 131550Z 18008KT 01/M05 A3033 RMK A01 T00101047  RH  066%=      5-min Rain = 0
KVP1 131551Z 19007KT 01/M05 A3033 RMK A01 T00101047  RH  065%=      5-min Rain = 0
KVP1 131552Z 18008KT 01/M05 A3033 RMK A01 T00121046  RH  065%=      5-min Rain = 0
KVP1 131553Z 18008KT 01/M05 A3033 RMK A01 T00131046  RH  065%=      5-min Rain = 0
KVP1 131554Z 18008KT 01/M05 A3033 RMK A01 T00141046  RH  064%=      5-min Rain = 0
KVP1 131555Z 18009KT 01/M05 A3033 RMK A01 T00131047  RH  064%=      5-min Rain = 0
KVP1 131556Z 18008KT 01/M05 A3033 RMK A01 T00131047  RH  064%=      5-min Rain = 0
KVP1 131557Z 19007KT 01/M05 A3033 RMK A01 T00131047  RH  064%=      5-min Rain = 0
KVP1 131558Z 17005KT 01/M05 A3033 RMK A01 T00131046  RH  065%=      5-min Rain = 0
KVP1 131559Z 17008KT 02/M05 A3033 RMK A01 T00151045  RH  064%=      5-min Rain = 0
KVP1 131600Z 18007KT 02/M05 A3033 RMK A01 T00151046  RH  063%=      5-min Rain = 0
KVP1 131601Z 18008KT 02/M05 A3033 RMK A01 T00151047  RH  063%=      5-min Rain = 0
KVP1 131602Z 19007KT 01/M05 A3033 RMK A01 T00141047  RH  064%=      5-min Rain = 0
KVP1 131603Z 19009KT 02/M05 A3033 RMK A01 T00161046  RH  064%=      5-min Rain = 0
KVP1 131604Z 20009KT 02/M05 A3033 RMK A01 T00171046  RH  063%=      5-min Rain = 0
KVP1 131605Z 19009KT 02/M05 A3033 RMK A01 T00171047  RH  063%=      5-min Rain = 0
KVP1 131606Z 18009KT 02/M05 A3033 RMK A01 T00171046  RH  063%=      5-min Rain = 0
KVP1 131607Z 19009KT 02/M05 A3033 RMK A01 T00191045  RH  063%=      5-min Rain = 0
KVP1 131608Z 19010KT 02/M05 A3033 RMK A01 T00201045  RH  062%=      5-min Rain = 0
KVP1 131609Z 19009KT 02/M05 A3033 RMK A01 T00201046  RH  062%=      5-min Rain = 0
KVP1 131610Z 18009KT 02/M05 A3033 RMK A01 T00191046  RH  062%=      5-min Rain = 0
KVP1 131611Z 18010KT 02/M05 A3033 RMK A01 T00201046  RH  062%=      5-min Rain = 0
KVP1 131612Z 19009KT 02/M05 A3033 RMK A01 T00211046  RH  061%=      5-min Rain = 0
KVP1 131613Z 18009KT 02/M05 A3033 RMK A01 T00221045  RH  061%=      5-min Rain = 0
KVP1 131614Z 17010KT 02/M04 A3033 RMK A01 T00231044  RH  061%=      5-min Rain = 0
KVP1 131615Z 19010KT 03/M04 A3033 RMK A01 T00251044  RH  061%=      5-min Rain = 0
KVP1 131616Z 20011KT 03/M04 A3033 RMK A01 T00251044  RH  060%=      5-min Rain = 0
KVP1 131617Z 19007KT 03/M05 A3033 RMK A01 T00251045  RH  060%=      5-min Rain = 0
KVP1 131618Z 18010KT 03/M04 A3033 RMK A01 T00251044  RH  060%=      5-min Rain = 0
KVP1 131619Z 18011KT 03/M05 A3033 RMK A01 T00251045  RH  060%=      5-min Rain = 0
KVP1 131620Z 18010KT 03/M05 A3033 RMK A01 T00251045  RH  060%=      5-min Rain = 0
KVP1 131621Z 18012KT 03/M04 A3033 RMK A01 T00261044  RH  060%=      5-min Rain = 0
KVP1 131622Z 18012KT 03/M04 A3033 RMK A01 T00271043  RH  060%=      5-min Rain = 0
KVP1 131623Z 19010KT 03/M04 A3032 RMK A01 T00271043  RH  060%=      5-min Rain = 0
KVP1 131624Z 18011KT 03/M04 A3032 RMK A01 T00271043  RH  060%=      5-min Rain = 0
KVP1 131625Z 18010KT 03/M04 A3032 RMK A01 T00271043  RH  060%=      5-min Rain = 0
KVP1 131626Z 19009KT 03/M04 A3032 RMK A01 T00281042  RH  060%=      5-min Rain = 0
KVP1 131627Z 18010KT 03/M04 A3032 RMK A01 T00301042  RH  059%=      5-min Rain = 0
KVP1 131628Z 18013KT 03/M04 A3032 RMK A01 T00301042  RH  059%=      5-min Rain = 0
KVP1 131629Z 18012KT 03/M04 A3032 RMK A01 T00291042  RH  059%=      5-min Rain = 0
KVP1 131630Z 19011KT 03/M04 A3032 RMK A01 T00281042  RH  060%=      5-min Rain = 0
KVP1 131631Z 18011KT 03/M04 A3032 RMK A01 T00281042  RH  060%=      5-min Rain = 0
KVP1 131632Z 18014KT 03/M04 A3032 RMK A01 T00291041  RH  060%=      5-min Rain = 0
KVP1 131633Z 18014KT 03/M04 A3032 RMK A01 T00301040  RH  060%=      5-min Rain = 0
KVP1 131634Z 18014KT 03/M04 A3032 RMK A01 T00311039  RH  060%=      5-min Rain = 0
KVP1 131635Z 19012KT 03/M04 A3033 RMK A01 T00311040  RH  060%=      5-min Rain = 0
KVP1 131636Z 19013KT 03/M04 A3033 RMK A01 T00321039  RH  060%=      5-min Rain = 0
KVP1 131637Z 19012KT 03/M04 A3033 RMK A01 T00321040  RH  059%=      5-min Rain = 0
KVP1 131638Z 20011KT 03/M04 A3033 RMK A01 T00321040  RH  059%=      5-min Rain = 0
KVP1 131639Z 20010KT 03/M04 A3033 RMK A01 T00321040  RH  059%=      5-min Rain = 0
KVP1 131640Z 20010KT 03/M04 A3033 RMK A01 T00341039  RH  059%=      5-min Rain = 0
KVP1 131641Z 20011KT 04/M04 A3033 RMK A01 T00351039  RH  058%=      5-min Rain = 0
KVP1 131642Z 19010KT 04/M04 A3033 RMK A01 T00351040  RH  058%=      5-min Rain = 0
KVP1 131643Z 19010KT 04/M04 A3033 RMK A01 T00351040  RH  058%=      5-min Rain = 0
KVP1 131644Z 20010KT 04/M04 A3033 RMK A01 T00361039  RH  058%=      5-min Rain = 0
KVP1 131645Z 20010KT 04/M04 A3033 RMK A01 T00361039  RH  058%=      5-min Rain = 0
KVP1 131646Z 21009KT 04/M04 A3033 RMK A01 T00361039  RH  058%=      5-min Rain = 0
KVP1 131647Z 20012KT 04/M04 A3033 RMK A01 T00371039  RH  058%=      5-min Rain = 0
KVP1 131648Z 20011KT 04/M04 A3033 RMK A01 T00361039  RH  058%=      5-min Rain = 0
KVP1 131649Z 21011KT 04/M04 A3033 RMK A01 T00361038  RH  058%=      5-min Rain = 0
KVP1 131650Z 21012KT 04/M04 A3033 RMK A01 T00371037  RH  058%=      5-min Rain = 0
KVP1 131651Z 20011KT 04/M04 A3033 RMK A01 T00381037  RH  058%=      5-min Rain = 0
KVP1 131652Z 21013KT 04/M04 A3033 RMK A01 T00391037  RH  058%=      5-min Rain = 0
KVP1 131653Z 21013KT 04/M04 A3033 RMK A01 T00381037  RH  058%=      5-min Rain = 0
KVP1 131654Z 21011KT 04/M04 A3033 RMK A01 T00381037  RH  058%=      5-min Rain = 0
KVP1 131655Z 21010KT 04/M04 A3033 RMK A01 T00401036  RH  058%=      5-min Rain = 0
KVP1 131656Z 21012KT 04/M04 A3033 RMK A01 T00411036  RH  057%=      5-min Rain = 0
KVP1 131657Z 21009KT 04/M04 A3033 RMK A01 T00401037  RH  057%=      5-min Rain = 0
KVP1 131658Z 20010KT 04/M04 A3034 RMK A01 T00401038  RH  057%=      5-min Rain = 0
KVP1 131659Z 20011KT 04/M04 A3034 RMK A01 T00401038  RH  057%=      5-min Rain = 0
KVP1 131700Z 20012KT 04/M04 A3034 RMK A01 T00411037  RH  057%=      5-min Rain = 0
KVP1 131701Z 21012KT 04/M04 A3033 RMK A01 T00421036  RH  057%=      5-min Rain = 0
KVP1 131702Z 21011KT 04/M04 A3033 RMK A01 T00411037  RH  057%=      5-min Rain = 0
KVP1 131703Z 20010KT 04/M04 A3033 RMK A01 T00401038  RH  057%=      5-min Rain = 0
KVP1 131704Z 21010KT 04/M04 A3033 RMK A01 T00401037  RH  057%=      5-min Rain = 0
KVP1 131705Z 21012KT 04/M04 A3033 RMK A01 T00431035  RH  057%=      5-min Rain = 0
KVP1 131706Z 21012KT 05/M03 A3033 RMK A01 T00451034  RH  057%=      5-min Rain = 0
KVP1 131707Z 21012KT 05/M03 A3033 RMK A01 T00481033  RH  056%=      5-min Rain = 0
KVP1 131708Z 22011KT 05/M03 A3033 RMK A01 T00481034  RH  055%=      5-min Rain = 0
KVP1 131709Z 21009KT 05/M04 A3033 RMK A01 T00491035  RH  055%=      5-min Rain = 0
KVP1 131710Z 20010KT 05/M03 A3033 RMK A01 T00501033  RH  055%=      5-min Rain = 0
KVP1 131711Z 21012KT 05/M03 A3033 RMK A01 T00511034  RH  054%=      5-min Rain = 0
KVP1 131712Z 21012KT 05/M03 A3033 RMK A01 T00501034  RH  055%=      5-min Rain = 0
KVP1 131713Z 21012KT 05/M03 A3033 RMK A01 T00521033  RH  055%=      5-min Rain = 0
KVP1 131714Z 21010KT 05/M03 A3033 RMK A01 T00521033  RH  054%=      5-min Rain = 0
KVP1 131715Z 22010KT 06/M03 A3033 RMK A01 T00571028  RH  054%=      5-min Rain = 0
KVP1 131716Z 22011KT 06/M03 A3033 RMK A01 T00601029  RH  053%=      5-min Rain = 0
KVP1 131717Z 20009KT 06/M03 A3033 RMK A01 T00601031  RH  052%=      5-min Rain = 0
KVP1 131718Z 20008G13KT 06/M03 A3033 RMK A01 T00601030  RH  052%=      5-min Rain = 0
KVP1 131719Z 20014KT 06/M03 A3033 RMK A01 T00641028  RH  052%=      5-min Rain = 0
KVP1 131720Z 20009KT 07/M03 A3033 RMK A01 T00651030  RH  051%=      5-min Rain = 0
KVP1 131721Z 21011KT 07/M03 A3033 RMK A01 T00651030  RH  051%=      5-min Rain = 0
KVP1 131722Z 20011KT 07/M03 A3033 RMK A01 T00671029  RH  050%=      5-min Rain = 0
KVP1 131723Z 21010KT 07/M03 A3032 RMK A01 T00671030  RH  050%=      5-min Rain = 0
KVP1 131724Z 22013KT 07/M03 A3032 RMK A01 T00671029  RH  050%=      5-min Rain = 0
KVP1 131725Z 22012KT 07/M03 A3032 RMK A01 T00681028  RH  050%=      5-min Rain = 0
KVP1 131726Z 20012KT 07/M03 A3032 RMK A01 T00701028  RH  050%=      5-min Rain = 0
KVP1 131727Z 20013KT 07/M03 A3032 RMK A01 T00701029  RH  049%=      5-min Rain = 0
KVP1 131728Z 20014KT 07/M03 A3032 RMK A01 T00681029  RH  050%=      5-min Rain = 0
KVP1 131729Z 20012KT 07/M03 A3032 RMK A01 T00671030  RH  050%=      5-min Rain = 0
KVP1 131730Z 21013KT 07/M03 A3032 RMK A01 T00681028  RH  050%=      5-min Rain = 0
KVP1 131731Z 21013KT 07/M03 A3033 RMK A01 T00731025  RH  050%=      5-min Rain = 0
KVP1 131732Z 20015KT 08/M03 A3033 RMK A01 T00761027  RH  048%=      5-min Rain = 0
KVP1 131733Z 20012KT 08/M03 A3033 RMK A01 T00751028  RH  048%=      5-min Rain = 0
KVP1 131734Z 21012KT 08/M03 A3033 RMK A01 T00761027  RH  048%=      5-min Rain = 0
KVP1 131735Z 22011KT 08/M03 A3033 RMK A01 T00781027  RH  047%=      5-min Rain = 0
KVP1 131736Z 22009KT 08/M03 A3032 RMK A01 T00761029  RH  047%=      5-min Rain = 0
KVP1 131737Z 20011KT 08/M03 A3032 RMK A01 T00751029  RH  048%=      5-min Rain = 0
KVP1 131738Z 19011KT 08/M03 A3032 RMK A01 T00771028  RH  048%=      5-min Rain = 0
KVP1 131739Z 19010KT 08/M03 A3032 RMK A01 T00781029  RH  047%=      5-min Rain = 0
KVP1 131740Z 23011KT 08/M03 A3032 RMK A01 T00791027  RH  047%=      5-min Rain = 0
KVP1 131741Z 23010KT 08/M03 A3032 RMK A01 T00821026  RH  046%=      5-min Rain = 0
KVP1 131742Z 20011KT 08/M03 A3032 RMK A01 T00821026  RH  046%=      5-min Rain = 0
KVP1 131743Z 22010KT 08/M03 A3032 RMK A01 T00831026  RH  046%=      5-min Rain = 0
KVP1 131744Z 22012KT 08/M03 A3032 RMK A01 T00831028  RH  045%=      5-min Rain = 0
KVP1 131745Z 22014KT 08/M03 A3032 RMK A01 T00821028  RH  046%=      5-min Rain = 0
KVP1 131746Z 23011KT 08/M03 A3032 RMK A01 T00801030  RH  046%=      5-min Rain = 0
KVP1 131747Z 22009KT 08/M03 A3032 RMK A01 T00771031  RH  047%=      5-min Rain = 0
KVP1 131748Z 21012KT 08/M03 A3032 RMK A01 T00751030  RH  047%=      5-min Rain = 0
KVP1 131749Z 21012KT 08/M03 A3032 RMK A01 T00761029  RH  047%=      5-min Rain = 0
KVP1 131750Z 21010KT 08/M03 A3032 RMK A01 T00761029  RH  047%=      5-min Rain = 0
KVP1 131751Z 21012KT 08/M03 A3032 RMK A01 T00791026  RH  047%=      5-min Rain = 0
KVP1 131752Z 20011KT 08/M03 A3032 RMK A01 T00811028  RH  046%=      5-min Rain = 0
KVP1 131753Z 19008KT 08/M03 A3032 RMK A01 T00781029  RH  047%=      5-min Rain = 0
KVP1 131754Z 20007G12KT 08/M03 A3032 RMK A01 T00801027  RH  047%=      5-min Rain = 0
KVP1 131755Z 21010KT 09/M03 A3032 RMK A01 T00851025  RH  046%=      5-min Rain = 0
KVP1 131756Z 21012KT 09/M03 A3031 RMK A01 T00871027  RH  045%=      5-min Rain = 0
KVP1 131757Z 21009KT 09/M03 A3031 RMK A01 T00851029  RH  045%=      5-min Rain = 0
KVP1 131758Z 23008KT 08/M03 A3031 RMK A01 T00831028  RH  045%=      5-min Rain = 0
KVP1 131759Z 21012KT 08/M03 A3031 RMK A01 T00831028  RH  045%=      5-min Rain = 0
KVP1 131800Z 21011KT 08/M03 A3031 RMK A01 T00831028  RH  045%=      5-min Rain = 0
KVP1 131801Z 19010KT 08/M03 A3031 RMK A01 T00831029  RH  045%=      5-min Rain = 0
KVP1 131802Z 19007KT 08/M03 A3031 RMK A01 T00831029  RH  045%=      5-min Rain = 0
KVP1 131803Z 21010G15KT 08/M03 A3031 RMK A01 T00841028  RH  045%=      5-min Rain = 0
KVP1 131804Z 21011KT 09/M03 A3031 RMK A01 T00851028  RH  045%=      5-min Rain = 0
KVP1 131805Z 21010KT 09/M03 A3031 RMK A01 T00851028  RH  045%=      5-min Rain = 0
KVP1 131806Z 20010KT 09/M03 A303 RMK A01 T00871027  RH  045%=      5-min Rain = 0
KVP1 131807Z 21010KT 09/M03 A303 RMK A01 T00881028  RH  044%=      5-min Rain = 0
KVP1 131808Z 20011KT 09/M03 A303 RMK A01 T00901027  RH  044%=      5-min Rain = 0
KVP1 131809Z 20010KT 09/M03 A303 RMK A01 T00901029  RH  043%=      5-min Rain = 0
KVP1 131810Z 19007KT 09/M03 A303 RMK A01 T00871029  RH  044%=      5-min Rain = 0
KVP1 131811Z 18009KT 09/M03 A303 RMK A01 T00871029  RH  044%=      5-min Rain = 0
KVP1 131812Z 20008KT 09/M03 A303 RMK A01 T00861029  RH  044%=      5-min Rain = 0
KVP1 131813Z 22009KT 09/M03 A303 RMK A01 T00871028  RH  044%=      5-min Rain = 0
KVP1 131814Z 21008KT 09/M03 A303 RMK A01 T00891027  RH  044%=      5-min Rain = 0
KVP1 131815Z 22008KT 09/M03 A303 RMK A01 T00881027  RH  044%=      5-min Rain = 0
KVP1 131816Z 21009KT 09/M03 A303 RMK A01 T00881027  RH  044%=      5-min Rain = 0
KVP1 131817Z 20012KT 09/M03 A303 RMK A01 T00921026  RH  043%=      5-min Rain = 0
KVP1 131818Z 19010KT 09/M03 A303 RMK A01 T00921028  RH  043%=      5-min Rain = 0
KVP1 131819Z 21012KT 09/M03 A303 RMK A01 T00911027  RH  043%=      5-min Rain = 0
KVP1 131820Z 21011G16KT 09/M03 A303 RMK A01 T00931027  RH  043%=      5-min Rain = 0
KVP1 131821Z 19011KT 09/M03 A303 RMK A01 T00941028  RH  042%=      5-min Rain = 0
KVP1 131822Z 19009G14KT 09/M03 A303 RMK A01 T00911030  RH  043%=      5-min Rain = 0
KVP1 131823Z 18009KT 09/M03 A303 RMK A01 T00891030  RH  043%=      5-min Rain = 0
KVP1 131824Z 20012KT 09/M03 A303 RMK A01 T00901028  RH  043%=      5-min Rain = 0
KVP1 131825Z 20010KT 09/M03 A303 RMK A01 T00901029  RH  043%=      5-min Rain = 0
KVP1 131826Z 20011KT 09/M03 A303 RMK A01 T00881029  RH  043%=      5-min Rain = 0
KVP1 131827Z 20008KT 09/M03 A3029 RMK A01 T00861030  RH  044%=      5-min Rain = 0
KVP1 131828Z 20010KT 09/M03 A3029 RMK A01 T00871028  RH  044%=      5-min Rain = 0
KVP1 131829Z 20011KT 09/M03 A303 RMK A01 T00891027  RH  044%=      5-min Rain = 0
KVP1 131830Z 19011KT 09/M03 A303 RMK A01 T00901028  RH  043%=      5-min Rain = 0
KVP1 131831Z 20010KT 09/M03 A303 RMK A01 T00901028  RH  043%=      5-min Rain = 0
KVP1 131832Z 21007KT 09/M03 A303 RMK A01 T00891028  RH  044%=      5-min Rain = 0
KVP1 131833Z 21011KT 09/M03 A3029 RMK A01 T00911026  RH  044%=      5-min Rain = 0
KVP1 131834Z 22010KT 10/M03 A3029 RMK A01 T00951026  RH  043%=      5-min Rain = 0
KVP1 131835Z 21009G14KT 09/M03 A3029 RMK A01 T00941026  RH  043%=      5-min Rain = 0
KVP1 131836Z 22011KT 10/M03 A3029 RMK A01 T00971026  RH  042%=      5-min Rain = 0
KVP1 131837Z 21013KT 10/M03 A3029 RMK A01 T00971027  RH  042%=      5-min Rain = 0
KVP1 131838Z 20011KT 10/M03 A3029 RMK A01 T00961027  RH  042%=      5-min Rain = 0
KVP1 131839Z 21011KT 10/M03 A3029 RMK A01 T00961028  RH  042%=      5-min Rain = 0
KVP1 131840Z 20007KT 09/M03 A3029 RMK A01 T00921029  RH  042%=      5-min Rain = 0
KVP1 131841Z 19011KT 09/M03 A3029 RMK A01 T00911028  RH  043%=      5-min Rain = 0
KVP1 131842Z 20011KT 09/M03 A3029 RMK A01 T00911029  RH  043%=      5-min Rain = 0
KVP1 131843Z 19009KT 09/M03 A3029 RMK A01 T00891030  RH  043%=      5-min Rain = 0
KVP1 131844Z 19010KT 09/M03 A3029 RMK A01 T00891029  RH  043%=      5-min Rain = 0
KVP1 131845Z 20013KT 09/M03 A3029 RMK A01 T00911028  RH  043%=      5-min Rain = 0
KVP1 131846Z 22010KT 09/M03 A3029 RMK A01 T00931027  RH  043%=      5-min Rain = 0
KVP1 131847Z 23007KT 10/M03 A3029 RMK A01 T00951027  RH  042%=      5-min Rain = 0
KVP1 131848Z 22007KT 10/M03 A3029 RMK A01 T00961027  RH  042%=      5-min Rain = 0
KVP1 131849Z 20009G15KT 10/M03 A3028 RMK A01 T00991025  RH  042%=      5-min Rain = 0
KVP1 131850Z 21012KT 10/M03 A3028 RMK A01 T01041025  RH  040%=      5-min Rain = 0
KVP1 131851Z 19010KT 10/M03 A3028 RMK A01 T01021028  RH  040%=      5-min Rain = 0
KVP1 131852Z 18010KT 10/M03 A3028 RMK A01 T01021028  RH  040%=      5-min Rain = 0
KVP1 131853Z 19008KT 10/M03 A3028 RMK A01 T01011028  RH  040%=      5-min Rain = 0
KVP1 131854Z 21008KT 10/M03 A3028 RMK A01 T01001027  RH  041%=      5-min Rain = 0
KVP1 131855Z 22011KT 10/M03 A3028 RMK A01 T01011026  RH  041%=      5-min Rain = 0
KVP1 131856Z 22010KT 10/M03 A3028 RMK A01 T01011028  RH  040%=      5-min Rain = 0
KVP1 131857Z 21010KT 10/M03 A3028 RMK A01 T00991028  RH  041%=      5-min Rain = 0
KVP1 131858Z 21008KT 10/M03 A3028 RMK A01 T00991027  RH  041%=      5-min Rain = 0
KVP1 131859Z 22009KT 10/M03 A3028 RMK A01 T00991027  RH  041%=      5-min Rain = 0
KVP1 131900Z 21011KT 10/M03 A3028 RMK A01 T01001028  RH  041%=      5-min Rain = 0
KVP1 131901Z 21010KT 10/M03 A3028 RMK A01 T01001028  RH  041%=      5-min Rain = 0
KVP1 131902Z 21007KT 10/M03 A3028 RMK A01 T01001028  RH  041%=      5-min Rain = 0
KVP1 131903Z 21009KT 10/M03 A3028 RMK A01 T01001028  RH  041%=      5-min Rain = 0
KVP1 131904Z 21007KT 10/M03 A3028 RMK A01 T01011027  RH  041%=      5-min Rain = 0
KVP1 131905Z 23008KT 11/M03 A3028 RMK A01 T01051025  RH  040%=      5-min Rain = 0
KVP1 131906Z 20010G15KT 11/M03 A3027 RMK A01 T01081025  RH  039%=      5-min Rain = 0
KVP1 131907Z 20009KT 11/M03 A3027 RMK A01 T01081026  RH  039%=      5-min Rain = 0
KVP1 131908Z 20010G15KT 11/M03 A3027 RMK A01 T01061028  RH  039%=      5-min Rain = 0
KVP1 131909Z 21011KT 10/M03 A3027 RMK A01 T01031029  RH  040%=      5-min Rain = 0
KVP1 131910Z 21010KT 10/M03 A3027 RMK A01 T01011029  RH  040%=      5-min Rain = 0
KVP1 131911Z 22009KT 10/M03 A3027 RMK A01 T00991029  RH  041%=      5-min Rain = 0
KVP1 131912Z 22008KT 10/M03 A3027 RMK A01 T00961029  RH  041%=      5-min Rain = 0
KVP1 131913Z 21010KT 10/M03 A3027 RMK A01 T00961029  RH  041%=      5-min Rain = 0
KVP1 131914Z 20011KT 10/M03 A3027 RMK A01 T00981029  RH  041%=      5-min Rain = 0
KVP1 131915Z 20010KT 10/M03 A3027 RMK A01 T00981029  RH  041%=      5-min Rain = 0
KVP1 131916Z 21008KT 10/M03 A3027 RMK A01 T00981029  RH  041%=      5-min Rain = 0
KVP1 131917Z 20008KT 10/M03 A3027 RMK A01 T01001027  RH  041%=      5-min Rain = 0
KVP1 131918Z 20008G14KT 10/M03 A3027 RMK A01 T01041025  RH  040%=      5-min Rain = 0
KVP1 131919Z 22011G17KT 11/M02 A3027 RMK A01 T01101024  RH  039%=      5-min Rain = 0
KVP1 131920Z 21014KT 11/M03 A3027 RMK A01 T01101026  RH  038%=      5-min Rain = 0
KVP1 131921Z 22012KT 11/M03 A3027 RMK A01 T01081028  RH  038%=      5-min Rain = 0
KVP1 131922Z 22009KT 11/M03 A3027 RMK A01 T01061028  RH  039%=      5-min Rain = 0
KVP1 131923Z 20008KT 11/M03 A3026 RMK A01 T01061027  RH  039%=      5-min Rain = 0
KVP1 131924Z 20008KT 10/M03 A3026 RMK A01 T01041028  RH  039%=      5-min Rain = 0
KVP1 131925Z 21006KT 10/M03 A3026 RMK A01 T01041027  RH  040%=      5-min Rain = 0
KVP1 131926Z 22008KT 11/M03 A3026 RMK A01 T01061026  RH  040%=      5-min Rain = 0
KVP1 131927Z 22011KT 11/M02 A3026 RMK A01 T01121024  RH  039%=      5-min Rain = 0
KVP1 131928Z 21013G18KT 11/M03 A3026 RMK A01 T01121025  RH  038%=      5-min Rain = 0
KVP1 131929Z 20010KT 11/M03 A3026 RMK A01 T01141025  RH  038%=      5-min Rain = 0
KVP1 131930Z 21011KT 12/M02 A3026 RMK A01 T01191023  RH  037%=      5-min Rain = 0
KVP1 131931Z 21009KT 12/M03 A3026 RMK A01 T01171027  RH  037%=      5-min Rain = 0
KVP1 131932Z 23007KT 12/M03 A3026 RMK A01 T01151026  RH  037%=      5-min Rain = 0
KVP1 131933Z 23007KT 11/M03 A3026 RMK A01 T01141026  RH  037%=      5-min Rain = 0
KVP1 131934Z 20010KT 11/M03 A3026 RMK A01 T01131026  RH  038%=      5-min Rain = 0
KVP1 131935Z 20007KT 11/M03 A3026 RMK A01 T01131026  RH  038%=      5-min Rain = 0
KVP1 131936Z 20010KT 11/M03 A3025 RMK A01 T01131025  RH  038%=      5-min Rain = 0
KVP1 131937Z 22010KT 12/M02 A3025 RMK A01 T01171023  RH  038%=      5-min Rain = 0
KVP1 131938Z 23009KT 12/M02 A3025 RMK A01 T01181024  RH  037%=      5-min Rain = 0
KVP1 131939Z 23007KT 12/M02 A3025 RMK A01 T01201024  RH  037%=      5-min Rain = 0
KVP1 131940Z 20010KT 12/M02 A3025 RMK A01 T01211024  RH  036%=      5-min Rain = 0
KVP1 131941Z 20009KT 12/M03 A3025 RMK A01 T01211025  RH  036%=      5-min Rain = 0
KVP1 131942Z 20010KT 12/M03 A3025 RMK A01 T01201025  RH  036%=      5-min Rain = 0
KVP1 131943Z 19010KT 12/M03 A3025 RMK A01 T01191025  RH  037%=      5-min Rain = 0
KVP1 131944Z 19009KT 12/M02 A3025 RMK A01 T01191024  RH  037%=      5-min Rain = 0
KVP1 131945Z 20010KT 12/M02 A3025 RMK A01 T01201024  RH  036%=      5-min Rain = 0
KVP1 131946Z 19009KT 12/M03 A3025 RMK A01 T01201025  RH  037%=      5-min Rain = 0
KVP1 131947Z 19009KT 12/M02 A3025 RMK A01 T01211024  RH  036%=      5-min Rain = 0
KVP1 131948Z 21008KT 12/M03 A3025 RMK A01 T01191025  RH  036%=      5-min Rain = 0
KVP1 131949Z 22012KT 12/M02 A3025 RMK A01 T01241022  RH  036%=      5-min Rain = 0
KVP1 131950Z 21013KT 12/M03 A3025 RMK A01 T01241025  RH  036%=      5-min Rain = 0
KVP1 131951Z 20010KT 12/M02 A3025 RMK A01 T01231024  RH  036%=      5-min Rain = 0
KVP1 131952Z 21008KT 12/M03 A3025 RMK A01 T01231025  RH  036%=      5-min Rain = 0
KVP1 131953Z 19011KT 12/M02 A3025 RMK A01 T01241023  RH  036%=      5-min Rain = 0
KVP1 131954Z 19013KT 13/M02 A3025 RMK A01 T01291022  RH  035%=      5-min Rain = 0
KVP1 131955Z 18012KT 13/M03 A3025 RMK A01 T01281025  RH  035%=      5-min Rain = 0
KVP1 131956Z 19009KT 12/M03 A3025 RMK A01 T01241026  RH  035%=      5-min Rain = 0
KVP1 131957Z 20010KT 12/M03 A3025 RMK A01 T01221025  RH  036%=      5-min Rain = 0
KVP1 131958Z 20011KT 13/M02 A3025 RMK A01 T01251023  RH  036%=      5-min Rain = 0
KVP1 131959Z 20010KT 13/M02 A3025 RMK A01 T01281024  RH  035%=      5-min Rain = 0
KVP1 132000Z 20010KT 12/M03 A3025 RMK A01 T01241025  RH  035%=      5-min Rain = 0
KVP1 132001Z 20011KT 13/M02 A3025 RMK A01 T01251024  RH  035%=      5-min Rain = 0
KVP1 132002Z 21013KT 13/M02 A3025 RMK A01 T01301022  RH  035%=      5-min Rain = 0
KVP1 132003Z 19011KT 13/M02 A3025 RMK A01 T01291024  RH  035%=      5-min Rain = 0
KVP1 132004Z 20010KT 13/M02 A3025 RMK A01 T01281024  RH  035%=      5-min Rain = 0
KVP1 132005Z 20011KT 13/M02 A3025 RMK A01 T01301022  RH  035%=      5-min Rain = 0
KVP1 132006Z 20012KT 13/M02 A3025 RMK A01 T01331022  RH  034%=      5-min Rain = 0
KVP1 132007Z 20013KT 13/M02 A3025 RMK A01 T01311024  RH  034%=      5-min Rain = 0
KVP1 132008Z 21011KT 13/M02 A3025 RMK A01 T01301023  RH  034%=      5-min Rain = 0
KVP1 132009Z 21009KT 13/M02 A3025 RMK A01 T01311022  RH  034%=      5-min Rain = 0
KVP1 132010Z 20010KT 13/M02 A3025 RMK A01 T01341022  RH  034%=      5-min Rain = 0
KVP1 132011Z 20011KT 13/M02 A3025 RMK A01 T01341023  RH  034%=      5-min Rain = 0
KVP1 132012Z 21013KT 13/M02 A3024 RMK A01 T01341023  RH  034%=      5-min Rain = 0
KVP1 132013Z 20012KT 13/M02 A3024 RMK A01 T01321024  RH  034%=      5-min Rain = 0
KVP1 132014Z 21014KT 13/M02 A3024 RMK A01 T01321024  RH  034%=      5-min Rain = 0
KVP1 132015Z 21011KT 13/M02 A3024 RMK A01 T01321024  RH  034%=      5-min Rain = 0
KVP1 132016Z 19010KT 13/M02 A3024 RMK A01 T01321023  RH  034%=      5-min Rain = 0
KVP1 132017Z 19010KT 13/M02 A3024 RMK A01 T01331024  RH  034%=      5-min Rain = 0
KVP1 132018Z 18014KT 13/M02 A3024 RMK A01 T01341023  RH  034%=      5-min Rain = 0
KVP1 132019Z 19013KT 14/M02 A3024 RMK A01 T01351024  RH  033%=      5-min Rain = 0
KVP1 132020Z 20011KT 14/M02 A3024 RMK A01 T01351024  RH  033%=      5-min Rain = 0
KVP1 132021Z 19010KT 13/M02 A3024 RMK A01 T01341024  RH  033%=      5-min Rain = 0
KVP1 132022Z 19012G18KT 13/M02 A3024 RMK A01 T01341023  RH  034%=      5-min Rain = 0
KVP1 132023Z 19012KT 14/M02 A3024 RMK A01 T01371024  RH  033%=      5-min Rain = 0
KVP1 132024Z 19012KT 14/M02 A3024 RMK A01 T01371024  RH  033%=      5-min Rain = 0
KVP1 132025Z 20012KT 14/M02 A3024 RMK A01 T01371024  RH  033%=      5-min Rain = 0
KVP1 132026Z 20009KT 14/M02 A3024 RMK A01 T01361024  RH  033%=      5-min Rain = 0
KVP1 132027Z 18009KT 14/M02 A3023 RMK A01 T01361024  RH  033%=      5-min Rain = 0
KVP1 132028Z 21011KT 14/M02 A3023 RMK A01 T01381022  RH  033%=      5-min Rain = 0
KVP1 132029Z 21010KT 14/M02 A3023 RMK A01 T01401024  RH  032%=      5-min Rain = 0
KVP1 132030Z 20010KT 14/M02 A3023 RMK A01 T01381024  RH  033%=      5-min Rain = 0
KVP1 132031Z 17010KT 14/M02 A3023 RMK A01 T01381023  RH  033%=      5-min Rain = 0
KVP1 132032Z 19011KT 14/M02 A3023 RMK A01 T01381024  RH  033%=      5-min Rain = 0
KVP1 132033Z 20011KT 14/M02 A3023 RMK A01 T01381024  RH  032%=      5-min Rain = 0
KVP1 132034Z 20008KT 14/M02 A3023 RMK A01 T01381024  RH  033%=      5-min Rain = 0
KVP1 132035Z 18008KT 14/M02 A3023 RMK A01 T01391023  RH  033%=      5-min Rain = 0
KVP1 132036Z 18011KT 14/M02 A3023 RMK A01 T01421022  RH  032%=      5-min Rain = 0
KVP1 132037Z 16010KT 15/M02 A3023 RMK A01 T01461021  RH  032%=      5-min Rain = 0
KVP1 132038Z 17009KT 14/M02 A3023 RMK A01 T01441024  RH  031%=      5-min Rain = 0
KVP1 132039Z 18009KT 14/M02 A3023 RMK A01 T01431023  RH  032%=      5-min Rain = 0
KVP1 132040Z 19011KT 14/M02 A3023 RMK A01 T01431022  RH  032%=      5-min Rain = 0
KVP1 132041Z 20010KT 14/M02 A3023 RMK A01 T01431023  RH  032%=      5-min Rain = 0
KVP1 132042Z 19009KT 14/M02 A3023 RMK A01 T01421024  RH  032%=      5-min Rain = 0
KVP1 132043Z 20009KT 14/M02 A3023 RMK A01 T01411023  RH  032%=      5-min Rain = 0
KVP1 132044Z 19010G15KT 14/M02 A3023 RMK A01 T01411023  RH  032%=      5-min Rain = 0
KVP1 132045Z 20012KT 14/M02 A3023 RMK A01 T01411022  RH  032%=      5-min Rain = 0
KVP1 132046Z 18007KT 14/M02 A3023 RMK A01 T01401023  RH  032%=      5-min Rain = 0
KVP1 132047Z 17007KT 14/M02 A3023 RMK A01 T01401022  RH  033%=      5-min Rain = 0
KVP1 132048Z 17010KT 14/M02 A3023 RMK A01 T01401022  RH  032%=      5-min Rain = 0
KVP1 132049Z 18008KT 14/M02 A3023 RMK A01 T01421021  RH  032%=      5-min Rain = 0
KVP1 132050Z 19008KT 14/M02 A3023 RMK A01 T01411022  RH  032%=      5-min Rain = 0
KVP1 132051Z 21009KT 14/M02 A3023 RMK A01 T01411022  RH  032%=      5-min Rain = 0
KVP1 132052Z 20011KT 15/M02 A3023 RMK A01 T01451022  RH  032%=      5-min Rain = 0
KVP1 132053Z 17011KT 15/M02 A3023 RMK A01 T01471022  RH  031%=      5-min Rain = 0
KVP1 132054Z 19012KT 15/M02 A3023 RMK A01 T01471023  RH  031%=      5-min Rain = 0
KVP1 132055Z 19011KT 15/M02 A3023 RMK A01 T01471023  RH  031%=      5-min Rain = 0
KVP1 132056Z 20010KT 14/M02 A3023 RMK A01 T01441024  RH  031%=      5-min Rain = 0
KVP1 132057Z 20010KT 14/M02 A3023 RMK A01 T01441023  RH  032%=      5-min Rain = 0
KVP1 132058Z 20013KT 15/M02 A3023 RMK A01 T01471022  RH  031%=      5-min Rain = 0
KVP1 132059Z 19011KT 15/M02 A3023 RMK A01 T01481022  RH  031%=      5-min Rain = 0
KVP1 132100Z 19011KT 15/M02 A3023 RMK A01 T01491022  RH  031%=      5-min Rain = 0
KVP1 132101Z 17010KT 15/M02 A3023 RMK A01 T01491022  RH  031%=      5-min Rain = 0
KVP1 132102Z 20014KT 15/M02 A3023 RMK A01 T01491022  RH  031%=      5-min Rain = 0
KVP1 132103Z 21011KT 15/M02 A3023 RMK A01 T01501023  RH  030%=      5-min Rain = 0
KVP1 132104Z 21010KT 15/M02 A3023 RMK A01 T01491023  RH  030%=      5-min Rain = 0
KVP1 132105Z 21009KT 15/M02 A3023 RMK A01 T01481022  RH  031%=      5-min Rain = 0
KVP1 132106Z 20009KT 15/M02 A3023 RMK A01 T01521020  RH  031%=      5-min Rain = 0
KVP1 132107Z 18011KT 16/M02 A3023 RMK A01 T01561019  RH  030%=      5-min Rain = 0
KVP1 132108Z 19012KT 16/M02 A3023 RMK A01 T01581020  RH  029%=      5-min Rain = 0
KVP1 132109Z 21011KT 16/M02 A3023 RMK A01 T01561021  RH  030%=      5-min Rain = 0
KVP1 132110Z 18009KT 15/M02 A3023 RMK A01 T01541021  RH  030%=      5-min Rain = 0
KVP1 132111Z 18010KT 15/M02 A3023 RMK A01 T01541020  RH  030%=      5-min Rain = 0
KVP1 132112Z 20010KT 15/M02 A3023 RMK A01 T01541020  RH  030%=      5-min Rain = 0
KVP1 132113Z 18009KT 16/M02 A3023 RMK A01 T01551020  RH  030%=      5-min Rain = 0
KVP1 132114Z 18009KT 16/M02 A3023 RMK A01 T01571019  RH  030%=      5-min Rain = 0
KVP1 132115Z 18012KT 16/M02 A3023 RMK A01 T01591018  RH  030%=      5-min Rain = 0
KVP1 132116Z 19012KT 16/M02 A3023 RMK A01 T01591018  RH  030%=      5-min Rain = 0
KVP1 132117Z 17008KT 16/M02 A3023 RMK A01 T01551019  RH  030%=      5-min Rain = 0
KVP1 132118Z 18012KT 16/M02 A3023 RMK A01 T01551018  RH  030%=      5-min Rain = 0
KVP1 132119Z 19015KT 16/M02 A3023 RMK A01 T01561018  RH  030%=      5-min Rain = 0
KVP1 132120Z 18014KT 16/M02 A3023 RMK A01 T01561019  RH  030%=      5-min Rain = 0
KVP1 132121Z 18012KT 16/M02 A3023 RMK A01 T01561019  RH  030%=      5-min Rain = 0
KVP1 132122Z 18013KT 16/M02 A3023 RMK A01 T01551019  RH  030%=      5-min Rain = 0
KVP1 132123Z 18012KT 15/M02 A3023 RMK A01 T01531019  RH  031%=      5-min Rain = 0
KVP1 132124Z 17010KT 15/M02 A3023 RMK A01 T01531019  RH  031%=      5-min Rain = 0
KVP1 132125Z 18011KT 15/M02 A3023 RMK A01 T01531019  RH  031%=      5-min Rain = 0
KVP1 132126Z 20014KT 16/M02 A3023 RMK A01 T01561018  RH  030%=      5-min Rain = 0
KVP1 132127Z 21012KT 16/M02 A3023 RMK A01 T01561020  RH  030%=      5-min Rain = 0
KVP1 132128Z 21011KT 15/M02 A3023 RMK A01 T01541020  RH  030%=      5-min Rain = 0
KVP1 132129Z 18011KT 15/M02 A3023 RMK A01 T01531019  RH  031%=      5-min Rain = 0
KVP1 132130Z 19012KT 16/M02 A3023 RMK A01 T01551018  RH  030%=      5-min Rain = 0
KVP1 132131Z 19011KT 16/M02 A3023 RMK A01 T01571019  RH  030%=      5-min Rain = 0
KVP1 132132Z 19011KT 16/M02 A3023 RMK A01 T01581019  RH  030%=      5-min Rain = 0
KVP1 132133Z 19013KT 16/M02 A3023 RMK A01 T01581019  RH  030%=      5-min Rain = 0
KVP1 132134Z 19014KT 16/M02 A3023 RMK A01 T01581018  RH  030%=      5-min Rain = 0
KVP1 132135Z 18010KT 16/M02 A3023 RMK A01 T01551020  RH  030%=      5-min Rain = 0
KVP1 132136Z 19016KT 15/M02 A3023 RMK A01 T01541019  RH  030%=      5-min Rain = 0
KVP1 132137Z 19013KT 15/M02 A3023 RMK A01 T01521020  RH  030%=      5-min Rain = 0
KVP1 132138Z 19010KT 15/M02 A3023 RMK A01 T01511020  RH  031%=      5-min Rain = 0
KVP1 132139Z 18013KT 15/M02 A3023 RMK A01 T01511020  RH  031%=      5-min Rain = 0
KVP1 132140Z 20013KT 15/M02 A3023 RMK A01 T01511020  RH  031%=      5-min Rain = 0
KVP1 132141Z 19013KT 15/M02 A3023 RMK A01 T01491021  RH  031%=      5-min Rain = 0
KVP1 132142Z 20012KT 15/M02 A3023 RMK A01 T01491021  RH  031%=      5-min Rain = 0
KVP1 132143Z 20012KT 15/M02 A3023 RMK A01 T01501020  RH  031%=      5-min Rain = 0
KVP1 132144Z 20012KT 15/M02 A3023 RMK A01 T01531020  RH  030%=      5-min Rain = 0
KVP1 132145Z 19013KT 15/M02 A3022 RMK A01 T01541020  RH  030%=      5-min Rain = 0
KVP1 132146Z 19011KT 15/M02 A3022 RMK A01 T01531022  RH  030%=      5-min Rain = 0
KVP1 132147Z 19009KT 15/M02 A3022 RMK A01 T01521022  RH  030%=      5-min Rain = 0
KVP1 132148Z 18010KT 15/M02 A3022 RMK A01 T01521021  RH  030%=      5-min Rain = 0
KVP1 132149Z 18014KT 15/M02 A3022 RMK A01 T01541020  RH  030%=      5-min Rain = 0
KVP1 132150Z 19016KT 15/M02 A3022 RMK A01 T01541022  RH  030%=      5-min Rain = 0
KVP1 132151Z 21014KT 15/M02 A3023 RMK A01 T01521023  RH  030%=      5-min Rain = 0
KVP1 132152Z 20014KT 15/M02 A3023 RMK A01 T01511023  RH  030%=      5-min Rain = 0
KVP1 132153Z 21013KT 15/M02 A3022 RMK A01 T01501023  RH  030%=      5-min Rain = 0
KVP1 132154Z 20011KT 15/M02 A3022 RMK A01 T01481023  RH  031%=      5-min Rain = 0
KVP1 132155Z 19010KT 15/M02 A3022 RMK A01 T01491021  RH  031%=      5-min Rain = 0
KVP1 132156Z 18012KT 15/M02 A3022 RMK A01 T01511020  RH  031%=      5-min Rain = 0
KVP1 132157Z 18012KT 15/M02 A3022 RMK A01 T01531021  RH  030%=      5-min Rain = 0
KVP1 132158Z 18011KT 15/M02 A3022 RMK A01 T01521022  RH  030%=      5-min Rain = 0
KVP1 132159Z 18011KT 15/M02 A3022 RMK A01 T01521021  RH  030%=      5-min Rain = 0
KVP1 132200Z 19012KT 15/M02 A3022 RMK A01 T01541020  RH  030%=      5-min Rain = 0
KVP1 132201Z 18011KT 16/M02 A3022 RMK A01 T01551021  RH  030%=      5-min Rain = 0
KVP1 132202Z 19012KT 16/M02 A3022 RMK A01 T01571021  RH  030%=      5-min Rain = 0
KVP1 132203Z 20012KT 16/M02 A3022 RMK A01 T01571022  RH  029%=      5-min Rain = 0
KVP1 132204Z 19013KT 16/M02 A3022 RMK A01 T01561021  RH  029%=      5-min Rain = 0
KVP1 132205Z 20013KT 16/M02 A3022 RMK A01 T01561022  RH  029%=      5-min Rain = 0
KVP1 132206Z 21011KT 16/M02 A3022 RMK A01 T01571021  RH  029%=      5-min Rain = 0
KVP1 132207Z 21011G16KT 16/M02 A3022 RMK A01 T01591020  RH  029%=      5-min Rain = 0
KVP1 132208Z 20013KT 16/M02 A3022 RMK A01 T01611019  RH  029%=      5-min Rain = 0
KVP1 132209Z 20013KT 16/M02 A3022 RMK A01 T01611020  RH  029%=      5-min Rain = 0
KVP1 132210Z 19012KT 16/M02 A3022 RMK A01 T01601019  RH  029%=      5-min Rain = 0
KVP1 132211Z 19011G16KT 16/M02 A3022 RMK A01 T01591020  RH  029%=      5-min Rain = 0
KVP1 132212Z 19014KT 16/M02 A3022 RMK A01 T01581020  RH  029%=      5-min Rain = 0
KVP1 132213Z 20011KT 16/M02 A3022 RMK A01 T01571021  RH  029%=      5-min Rain = 0
KVP1 132214Z 18012KT 16/M02 A3022 RMK A01 T01561020  RH  030%=      5-min Rain = 0
KVP1 132215Z 18014KT 16/M02 A3022 RMK A01 T01571019  RH  030%=      5-min Rain = 0
KVP1 132216Z 19012KT 16/M02 A3022 RMK A01 T01561019  RH  030%=      5-min Rain = 0
KVP1 132217Z 20012KT 16/M02 A3022 RMK A01 T01561018  RH  030%=      5-min Rain = 0
KVP1 132218Z 20015KT 16/M02 A3022 RMK A01 T01581018  RH  030%=      5-min Rain = 0
KVP1 132219Z 18013KT 16/M02 A3022 RMK A01 T01581019  RH  030%=      5-min Rain = 0
KVP1 132220Z 18012KT 16/M02 A3022 RMK A01 T01581019  RH  030%=      5-min Rain = 0
KVP1 132221Z 19010KT 16/M02 A3022 RMK A01 T01581018  RH  030%=      5-min Rain = 0
KVP1 132222Z 18012KT 16/M02 A3022 RMK A01 T01601017  RH  030%=      5-min Rain = 0
KVP1 132223Z 18013KT 16/M02 A3022 RMK A01 T01601016  RH  030%=      5-min Rain = 0
KVP1 132224Z 19013KT 16/M02 A3022 RMK A01 T01611016  RH  030%=      5-min Rain = 0
KVP1 132225Z 20014KT 16/M02 A3022 RMK A01 T01611016  RH  030%=      5-min Rain = 0
KVP1 132226Z 21015KT 16/M02 A3022 RMK A01 T01611016  RH  030%=      5-min Rain = 0
KVP1 132227Z 18014KT 16/M02 A3022 RMK A01 T01601016  RH  030%=      5-min Rain = 0
KVP1 132228Z 18013KT 16/M02 A3022 RMK A01 T01601016  RH  030%=      5-min Rain = 0
KVP1 132229Z 19009KT 16/M02 A3022 RMK A01 T01591015  RH  030%=      5-min Rain = 0
KVP1 132230Z 18010KT 16/M01 A3022 RMK A01 T01621013  RH  030%=      5-min Rain = 0
KVP1 132231Z 19014KT 16/M01 A3022 RMK A01 T01641014  RH  030%=      5-min Rain = 0
KVP1 132232Z 19014KT 16/M02 A3022 RMK A01 T01631015  RH  030%=      5-min Rain = 0
KVP1 132233Z 19014KT 16/M02 A3022 RMK A01 T01621016  RH  030%=      5-min Rain = 0
KVP1 132234Z 21014KT 16/M02 A3022 RMK A01 T01631016  RH  029%=      5-min Rain = 0
KVP1 132235Z 21012KT 16/M02 A3022 RMK A01 T01621017  RH  029%=      5-min Rain = 0
KVP1 132236Z 20014KT 16/M02 A3022 RMK A01 T01611016  RH  030%=      5-min Rain = 0
KVP1 132237Z 20011KT 16/M02 A3022 RMK A01 T01611016  RH  030%=      5-min Rain = 0
KVP1 132238Z 20014KT 16/M02 A3022 RMK A01 T01621016  RH  030%=      5-min Rain = 0
KVP1 132239Z 19014KT 16/M02 A3022 RMK A01 T01621016  RH  029%=      5-min Rain = 0
KVP1 132240Z 20015KT 16/M02 A3022 RMK A01 T01611016  RH  030%=      5-min Rain = 0
KVP1 132241Z 20014KT 16/M02 A3022 RMK A01 T01611015  RH  030%=      5-min Rain = 0
KVP1 132242Z 21011KT 16/M02 A3022 RMK A01 T01611015  RH  030%=      5-min Rain = 0
KVP1 132243Z 21010G16KT 16/M01 A3022 RMK A01 T01621014  RH  030%=      5-min Rain = 0
KVP1 132244Z 19016KT 16/M01 A3022 RMK A01 T01641013  RH  030%=      5-min Rain = 0
KVP1 132245Z 19016KT 16/M01 A3022 RMK A01 T01631012  RH  030%=      5-min Rain = 0
KVP1 132246Z 19015KT 16/M01 A3022 RMK A01 T01601011  RH  031%=      5-min Rain = 0
KVP1 132247Z 20012KT 16/M01 A3022 RMK A01 T01591011  RH  031%=      5-min Rain = 0
KVP1 132248Z 19012KT 16/M01 A3022 RMK A01 T01591010  RH  031%=      5-min Rain = 0
KVP1 132249Z 20015KT 16/M01 A3022 RMK A01 T01601010  RH  031%=      5-min Rain = 0
KVP1 132250Z 20013KT 16/M01 A3022 RMK A01 T01601010  RH  031%=      5-min Rain = 0
KVP1 132251Z 20013KT 16/M01 A3022 RMK A01 T01591010  RH  031%=      5-min Rain = 0
KVP1 132252Z 20013KT 16/M01 A3022 RMK A01 T01591009  RH  032%=      5-min Rain = 0
KVP1 132253Z 19011KT 16/M01 A3022 RMK A01 T01571008  RH  032%=      5-min Rain = 0
KVP1 132254Z 18011KT 16/M01 A3022 RMK A01 T01571007  RH  033%=      5-min Rain = 0
KVP1 132255Z 18011KT 16/M01 A3022 RMK A01 T01571006  RH  033%=      5-min Rain = 0
KVP1 132256Z 19013KT 16/M01 A3022 RMK A01 T01581005  RH  033%=      5-min Rain = 0
KVP1 132257Z 19010KT 16/M00 A3022 RMK A01 T01591004  RH  033%=      5-min Rain = 0
KVP1 132258Z 19011G16KT 16/M00 A3022 RMK A01 T01591004  RH  033%=      5-min Rain = 0
KVP1 132259Z 18016KT 16/M00 A3022 RMK A01 T01601004  RH  033%=      5-min Rain = 0
KVP1 132300Z 19015KT 16/M00 A3022 RMK A01 T01611004  RH  033%=      5-min Rain = 0
KVP1 132301Z 19014KT 16/M00 A3022 RMK A01 T01611004  RH  033%=      5-min Rain = 0
KVP1 132302Z 18014KT 16/M00 A3022 RMK A01 T01611003  RH  033%=      5-min Rain = 0
KVP1 132303Z 18014KT 16/M00 A3022 RMK A01 T01611002  RH  033%=      5-min Rain = 0
KVP1 132304Z 19013KT 16/00 A3022 RMK A01 T016100-0  RH  033%=      5-min Rain = 0
KVP1 132305Z 20015KT 16/00 A3022 RMK A01 T016100-0  RH  033%=      5-min Rain = 0
KVP1 132306Z 19014KT 16/M00 A3022 RMK A01 T01611001  RH  033%=      5-min Rain = 0
KVP1 132307Z 19012KT 16/M00 A3022 RMK A01 T01601002  RH  033%=      5-min Rain = 0
KVP1 132308Z 20015KT 16/M00 A3022 RMK A01 T01581002  RH  033%=      5-min Rain = 0
KVP1 132309Z 19011KT 16/M00 A3022 RMK A01 T01571002  RH  034%=      5-min Rain = 0
KVP1 132310Z 19014KT 16/M00 A3022 RMK A01 T01571002  RH  034%=      5-min Rain = 0
KVP1 132311Z 19016KT 16/M00 A3022 RMK A01 T01561001  RH  034%=      5-min Rain = 0
KVP1 132312Z 18015KT 16/00 A3022 RMK A01 T015600-0  RH  034%=      5-min Rain = 0
KVP1 132313Z 18015KT 16/00 A3022 RMK A01 T01560001  RH  035%=      5-min Rain = 0
KVP1 132314Z 18014KT 16/00 A3022 RMK A01 T01550001  RH  035%=      5-min Rain = 0
KVP1 132315Z 18014KT 15/00 A3022 RMK A01 T01540001  RH  035%=      5-min Rain = 0
KVP1 132316Z 18013KT 15/00 A3022 RMK A01 T01530001  RH  035%=      5-min Rain = 0
KVP1 132317Z 19013KT 15/00 A3022 RMK A01 T01520001  RH  036%=      5-min Rain = 0
KVP1 132318Z 20013KT 15/00 A3022 RMK A01 T01520001  RH  036%=      5-min Rain = 0
KVP1 132319Z 19012KT 15/00 A3022 RMK A01 T01510001  RH  036%=      5-min Rain = 0
KVP1 132320Z 19012KT 15/00 A3022 RMK A01 T01510001  RH  036%=      5-min Rain = 0
KVP1 132321Z 19012KT 15/00 A3022 RMK A01 T01510002  RH  036%=      5-min Rain = 0
KVP1 132322Z 19013KT 15/00 A3022 RMK A01 T01510002  RH  036%=      5-min Rain = 0
KVP1 132323Z 19013KT 15/00 A3022 RMK A01 T01510002  RH  036%=      5-min Rain = 0
KVP1 132324Z 19012KT 15/00 A3022 RMK A01 T01500002  RH  036%=      5-min Rain = 0
KVP1 132325Z 18011KT 15/00 A3022 RMK A01 T01490003  RH  037%=      5-min Rain = 0
KVP1 132326Z 18011KT 15/00 A3022 RMK A01 T01490003  RH  037%=      5-min Rain = 0
KVP1 132327Z 18012KT 15/00 A3022 RMK A01 T01490004  RH  037%=      5-min Rain = 0
KVP1 132328Z 19014KT 15/00 A3022 RMK A01 T01480004  RH  037%=      5-min Rain = 0
KVP1 132329Z 18012KT 15/00 A3022 RMK A01 T01480004  RH  037%=      5-min Rain = 0
KVP1 132330Z 18013KT 15/00 A3022 RMK A01 T01480004  RH  037%=      5-min Rain = 0
KVP1 132331Z 19013KT 15/01 A3022 RMK A01 T01490005  RH  037%=      5-min Rain = 0
KVP1 132332Z 19013KT 15/01 A3022 RMK A01 T01500005  RH  037%=      5-min Rain = 0
KVP1 132333Z 19013KT 15/01 A3022 RMK A01 T01500005  RH  037%=      5-min Rain = 0
KVP1 132334Z 19012KT 15/01 A3022 RMK A01 T01500005  RH  037%=      5-min Rain = 0
KVP1 132335Z 19012KT 15/01 A3022 RMK A01 T01500005  RH  037%=      5-min Rain = 0
KVP1 132336Z 19013KT 15/01 A3022 RMK A01 T01500005  RH  037%=      5-min Rain = 0
KVP1 132337Z 19015KT 15/01 A3022 RMK A01 T01500006  RH  037%=      5-min Rain = 0
KVP1 132338Z 19014KT 15/01 A3022 RMK A01 T01500007  RH  038%=      5-min Rain = 0
KVP1 132339Z 19014KT 15/01 A3022 RMK A01 T01500007  RH  038%=      5-min Rain = 0
KVP1 132340Z 19015KT 15/01 A3022 RMK A01 T01500007  RH  038%=      5-min Rain = 0
KVP1 132341Z 19014KT 15/01 A3022 RMK A01 T01490007  RH  038%=      5-min Rain = 0
KVP1 132342Z 19013KT 15/01 A3022 RMK A01 T01480007  RH  038%=      5-min Rain = 0
KVP1 132343Z 19013KT 15/01 A3022 RMK A01 T01470007  RH  038%=      5-min Rain = 0
KVP1 132344Z 19014KT 15/01 A3022 RMK A01 T01460008  RH  039%=      5-min Rain = 0
KVP1 132345Z 19015KT 15/01 A3022 RMK A01 T01450009  RH  040%=      5-min Rain = 0
KVP1 132346Z 18015KT 14/01 A3022 RMK A01 T01440010  RH  040%=      5-min Rain = 0
KVP1 132347Z 18016KT 14/01 A3022 RMK A01 T01430010  RH  040%=      5-min Rain = 0
KVP1 132348Z 18012KT 14/01 A3022 RMK A01 T01420011  RH  041%=      5-min Rain = 0
KVP1 132349Z 18013KT 14/01 A3022 RMK A01 T01410010  RH  041%=      5-min Rain = 0
KVP1 132350Z 18012KT 14/01 A3022 RMK A01 T01390010  RH  041%=      5-min Rain = 0
KVP1 132351Z 18012KT 14/01 A3022 RMK A01 T01380010  RH  042%=      5-min Rain = 0
KVP1 132352Z 18013KT 14/01 A3022 RMK A01 T01370010  RH  042%=      5-min Rain = 0
KVP1 132353Z 19013KT 14/01 A3022 RMK A01 T01360009  RH  042%=      5-min Rain = 0
KVP1 132354Z 18013KT 14/01 A3022 RMK A01 T01350010  RH  042%=      5-min Rain = 0
KVP1 132355Z 18012KT 13/01 A3022 RMK A01 T01340009  RH  043%=      5-min Rain = 0
KVP1 132356Z 19013KT 13/01 A3022 RMK A01 T01330009  RH  043%=      5-min Rain = 0
KVP1 132357Z 18011KT 13/01 A3022 RMK A01 T01320009  RH  043%=      5-min Rain = 0
KVP1 132358Z 18012KT 13/01 A3022 RMK A01 T01310008  RH  043%=      5-min Rain = 0
KVP1 132359Z 18013KT 13/01 A3022 RMK A01 T01300009  RH  043%=      5-min Rain = 0
KVP1 140000Z 19012KT 13/01 A3022 RMK A01 T01300009  RH  044%=      5-min Rain = 0
KVP1 140001Z 18013KT 13/01 A3022 RMK A01 T01300009  RH  044%=      5-min Rain = 0
KVP1 140002Z 18012KT 13/01 A3022 RMK A01 T01290009  RH  044%=      5-min Rain = 0
KVP1 140003Z 18011KT 13/01 A3022 RMK A01 T01290008  RH  044%=      5-min Rain = 0
KVP1 140004Z 18011KT 13/01 A3022 RMK A01 T01280008  RH  044%=      5-min Rain = 0
KVP1 140005Z 18012KT 13/01 A3022 RMK A01 T01270008  RH  044%=      5-min Rain = 0
KVP1 140011Z 19012KT 12/01 A3022 RMK A01 T01240007  RH  045%=      5-min Rain = 0
KVP1 140012Z 18011KT 12/01 A3022 RMK A01 T01230006  RH  045%=      5-min Rain = 0
KVP1 140013Z 18011KT 12/01 A3022 RMK A01 T01230006  RH  045%=      5-min Rain = 0
KVP1 140014Z 18011KT 12/01 A3022 RMK A01 T01220005  RH  045%=      5-min Rain = 0
KVP1 140015Z 18010KT 12/01 A3022 RMK A01 T01200005  RH  045%=      5-min Rain = 0
KVP1 140016Z 18010KT 12/00 A3022 RMK A01 T01190004  RH  045%=      5-min Rain = 0
KVP1 140017Z 19009KT 12/00 A3023 RMK A01 T01180004  RH  046%=      5-min Rain = 0
KVP1 140018Z 18010KT 12/00 A3023 RMK A01 T01170004  RH  046%=      5-min Rain = 0
KVP1 140019Z 19009KT 12/00 A3023 RMK A01 T01160003  RH  046%=      5-min Rain = 0
KVP1 140020Z 19010KT 12/00 A3023 RMK A01 T01150003  RH  046%=      5-min Rain = 0
KVP1 140021Z 19010KT 11/00 A3023 RMK A01 T01140003  RH  046%=      5-min Rain = 0
KVP1 140022Z 19010KT 11/00 A3023 RMK A01 T01130003  RH  046%=      5-min Rain = 0
KVP1 140023Z 19009KT 11/00 A3023 RMK A01 T01130003  RH  047%=      5-min Rain = 0
KVP1 140024Z 19010KT 11/00 A3023 RMK A01 T01120002  RH  047%=      5-min Rain = 0
KVP1 140025Z 19011KT 11/00 A3023 RMK A01 T01110002  RH  047%=      5-min Rain = 0
KVP1 140026Z 19012KT 11/00 A3023 RMK A01 T01100003  RH  047%=      5-min Rain = 0
KVP1 140027Z 19011KT 11/00 A3023 RMK A01 T01100003  RH  047%=      5-min Rain = 0
KVP1 140028Z 19012KT 11/00 A3023 RMK A01 T01100003  RH  048%=      5-min Rain = 0
KVP1 140029Z 19012KT 11/00 A3023 RMK A01 T01100003  RH  048%=      5-min Rain = 0
KVP1 140030Z 19012KT 11/00 A3023 RMK A01 T01100003  RH  048%=      5-min Rain = 0
KVP1 140031Z 19012KT 11/00 A3023 RMK A01 T01100003  RH  048%=      5-min Rain = 0
KVP1 140032Z 19011KT 11/00 A3023 RMK A01 T01100003  RH  048%=      5-min Rain = 0
KVP1 140033Z 19011KT 11/00 A3023 RMK A01 T01100003  RH  048%=      5-min Rain = 0
KVP1 140034Z 19011KT 11/00 A3023 RMK A01 T01090002  RH  047%=      5-min Rain = 0
KVP1 140035Z 19011KT 11/00 A3023 RMK A01 T01080001  RH  048%=      5-min Rain = 0
KVP1 140036Z 19011KT 11/00 A3023 RMK A01 T01070001  RH  048%=      5-min Rain = 0
KVP1 140037Z 19011KT 11/00 A3023 RMK A01 T01070001  RH  048%=      5-min Rain = 0
KVP1 140038Z 19010KT 11/00 A3023 RMK A01 T01060001  RH  048%=      5-min Rain = 0
KVP1 140039Z 19010KT 11/00 A3023 RMK A01 T01050000  RH  048%=      5-min Rain = 0
KVP1 140040Z 19010KT 10/00 A3023 RMK A01 T01040000  RH  049%=      5-min Rain = 0
KVP1 140041Z 19010KT 10/00 A3023 RMK A01 T010300-0  RH  049%=      5-min Rain = 0
KVP1 140042Z 19009KT 10/M00 A3023 RMK A01 T01021001  RH  049%=      5-min Rain = 0
KVP1 140043Z 19009KT 10/M00 A3023 RMK A01 T01011002  RH  049%=      5-min Rain = 0
KVP1 140044Z 19010KT 10/M00 A3023 RMK A01 T00991002  RH  049%=      5-min Rain = 0
KVP1 140045Z 19009KT 10/M00 A3023 RMK A01 T00981003  RH  050%=      5-min Rain = 0
KVP1 140046Z 19009KT 10/M00 A3023 RMK A01 T00971002  RH  050%=      5-min Rain = 0
KVP1 140047Z 19009KT 10/M00 A3023 RMK A01 T00971002  RH  050%=      5-min Rain = 0
KVP1 140048Z 19009KT 10/M00 A3023 RMK A01 T00961002  RH  050%=      5-min Rain = 0
KVP1 140049Z 19009KT 10/M00 A3023 RMK A01 T00971002  RH  050%=      5-min Rain = 0
KVP1 140050Z 19009KT 10/M00 A3023 RMK A01 T00961002  RH  050%=      5-min Rain = 0
KVP1 140051Z 19009KT 10/M00 A3023 RMK A01 T00961002  RH  050%=      5-min Rain = 0
KVP1 140052Z 19009KT 10/M00 A3023 RMK A01 T00961002  RH  051%=      5-min Rain = 0
KVP1 140053Z 19008KT 10/M00 A3023 RMK A01 T00961002  RH  051%=      5-min Rain = 0
KVP1 140054Z 19009KT 10/M00 A3023 RMK A01 T00951002  RH  051%=      5-min Rain = 0
KVP1 140055Z 19009KT 10/M00 A3023 RMK A01 T00951002  RH  051%=      5-min Rain = 0
KVP1 140056Z 19009KT 09/M00 A3023 RMK A01 T00941002  RH  051%=      5-min Rain = 0
KVP1 140057Z 19009KT 09/M00 A3023 RMK A01 T00941002  RH  051%=      5-min Rain = 0
KVP1 140058Z 19008KT 09/M00 A3023 RMK A01 T00941003  RH  051%=      5-min Rain = 0
KVP1 140059Z 19008KT 09/M00 A3023 RMK A01 T00921003  RH  051%=      5-min Rain = 0
KVP1 140100Z 19008KT 09/M00 A3023 RMK A01 T00911004  RH  051%=      5-min Rain = 0
KVP1 140101Z 20008KT 09/M00 A3023 RMK A01 T00901004  RH  052%=      5-min Rain = 0
KVP1 140102Z 19009KT 09/M00 A3023 RMK A01 T00891004  RH  052%=      5-min Rain = 0
KVP1 140103Z 19009KT 09/M01 A3023 RMK A01 T00881005  RH  052%=      5-min Rain = 0
KVP1 140104Z 19009KT 09/M01 A3023 RMK A01 T00871005  RH  052%=      5-min Rain = 0
KVP1 140105Z 19010KT 09/M01 A3023 RMK A01 T00871005  RH  053%=      5-min Rain = 0
KVP1 140106Z 19010KT 09/M00 A3023 RMK A01 T00861004  RH  053%=      5-min Rain = 0
KVP1 140107Z 19010KT 09/M00 A3023 RMK A01 T00861004  RH  053%=      5-min Rain = 0
KVP1 140108Z 19009KT 09/M00 A3023 RMK A01 T00861004  RH  053%=      5-min Rain = 0
KVP1 140109Z 19010KT 09/M00 A3023 RMK A01 T00861003  RH  053%=      5-min Rain = 0
KVP1 140110Z 19010KT 09/M00 A3023 RMK A01 T00861003  RH  053%=      5-min Rain = 0
KVP1 140111Z 19010KT 09/M00 A3023 RMK A01 T00861003  RH  054%=      5-min Rain = 0
KVP1 140112Z 19010KT 09/M00 A3023 RMK A01 T00861003  RH  054%=      5-min Rain = 0
KVP1 140113Z 19011KT 09/M00 A3023 RMK A01 T00851003  RH  054%=      5-min Rain = 0
KVP1 140114Z 19010KT 09/M00 A3023 RMK A01 T00851003  RH  054%=      5-min Rain = 0
KVP1 140115Z 19009KT 09/M00 A3023 RMK A01 T00851003  RH  054%=      5-min Rain = 0
KVP1 140116Z 19010KT 09/M00 A3023 RMK A01 T00851003  RH  054%=      5-min Rain = 0
KVP1 140117Z 19010KT 09/M00 A3023 RMK A01 T00851003  RH  054%=      5-min Rain = 0
KVP1 140118Z 19011KT 09/M00 A3023 RMK A01 T00851002  RH  054%=      5-min Rain = 0
KVP1 140119Z 19010KT 09/M00 A3023 RMK A01 T00861002  RH  054%=      5-min Rain = 0
KVP1 140120Z 19011KT 09/M00 A3023 RMK A01 T00861002  RH  054%=      5-min Rain = 0
KVP1 140121Z 19010KT 09/M00 A3023 RMK A01 T00861002  RH  054%=      5-min Rain = 0
KVP1 140122Z 19010KT 09/M00 A3023 RMK A01 T00861002  RH  054%=      5-min Rain = 0
KVP1 140123Z 19009KT 09/M00 A3023 RMK A01 T00861002  RH  054%=      5-min Rain = 0
KVP1 140124Z 19010KT 09/M00 A3023 RMK A01 T00851002  RH  054%=      5-min Rain = 0
KVP1 140125Z 19010KT 09/M00 A3023 RMK A01 T00851003  RH  054%=      5-min Rain = 0
KVP1 140126Z 20009KT 08/M00 A3023 RMK A01 T00831003  RH  054%=      5-min Rain = 0
KVP1 140127Z 19010KT 08/M00 A3023 RMK A01 T00831003  RH  055%=      5-min Rain = 0
KVP1 140128Z 19009KT 08/M00 A3023 RMK A01 T00821004  RH  055%=      5-min Rain = 0
KVP1 140129Z 19010KT 08/M00 A3023 RMK A01 T00811003  RH  055%=      5-min Rain = 0
KVP1 140130Z 19009KT 08/M00 A3023 RMK A01 T00801004  RH  056%=      5-min Rain = 0
KVP1 140131Z 19009KT 08/M00 A3023 RMK A01 T00791004  RH  056%=      5-min Rain = 0
KVP1 140132Z 19009KT 08/M00 A3023 RMK A01 T00781004  RH  056%=      5-min Rain = 0
KVP1 140133Z 19009KT 08/M00 A3023 RMK A01 T00781004  RH  056%=      5-min Rain = 0
KVP1 140134Z 19009KT 08/M00 A3023 RMK A01 T00771004  RH  056%=      5-min Rain = 0
KVP1 140135Z 19009KT 08/M00 A3023 RMK A01 T00771004  RH  057%=      5-min Rain = 0
KVP1 140136Z 19010KT 08/M00 A3023 RMK A01 T00771004  RH  057%=      5-min Rain = 0
KVP1 140137Z 19009KT 08/M00 A3023 RMK A01 T00761004  RH  057%=      5-min Rain = 0
KVP1 140138Z 19009KT 08/M00 A3023 RMK A01 T00761004  RH  057%=      5-min Rain = 0
KVP1 140139Z 19009KT 08/M00 A3024 RMK A01 T00751004  RH  057%=      5-min Rain = 0
KVP1 140140Z 19009KT 08/M00 A3024 RMK A01 T00751004  RH  057%=      5-min Rain = 0
KVP1 140141Z 20008KT 07/M01 A3024 RMK A01 T00741005  RH  057%=      5-min Rain = 0
KVP1 140142Z 19008KT 07/M01 A3024 RMK A01 T00731005  RH  057%=      5-min Rain = 0
KVP1 140143Z 19008KT 07/M01 A3024 RMK A01 T00721005  RH  058%=      5-min Rain = 0
KVP1 140144Z 20008KT 07/M01 A3024 RMK A01 T00711006  RH  058%=      5-min Rain = 0
KVP1 140145Z 19008KT 07/M01 A3024 RMK A01 T00701006  RH  058%=      5-min Rain = 0
KVP1 140146Z 20008KT 07/M01 A3024 RMK A01 T00691007  RH  058%=      5-min Rain = 0
KVP1 140147Z 19008KT 07/M01 A3024 RMK A01 T00681007  RH  059%=      5-min Rain = 0
KVP1 140148Z 19008KT 07/M01 A3024 RMK A01 T00671007  RH  059%=      5-min Rain = 0
KVP1 140149Z 19008KT 07/M01 A3024 RMK A01 T00661008  RH  059%=      5-min Rain = 0
KVP1 140150Z 19008KT 07/M01 A3024 RMK A01 T00651008  RH  060%=      5-min Rain = 0
KVP1 140151Z 19008KT 06/M01 A3024 RMK A01 T00631009  RH  060%=      5-min Rain = 0
KVP1 140152Z 19008KT 06/M01 A3024 RMK A01 T00621009  RH  060%=      5-min Rain = 0
KVP1 140153Z 19008KT 06/M01 A3024 RMK A01 T00611009  RH  060%=      5-min Rain = 0
KVP1 140154Z 19008KT 06/M01 A3024 RMK A01 T00611009  RH  061%=      5-min Rain = 0
KVP1 140155Z 19009KT 06/M01 A3024 RMK A01 T00601010  RH  061%=      5-min Rain = 0
KVP1 140156Z 19009KT 06/M01 A3024 RMK A01 T00591010  RH  061%=      5-min Rain = 0
KVP1 140157Z 19009KT 06/M01 A3024 RMK A01 T00591010  RH  061%=      5-min Rain = 0
KVP1 140158Z 19008KT 06/M01 A3024 RMK A01 T00591009  RH  061%=      5-min Rain = 0
KVP1 140159Z 19008KT 06/M01 A3024 RMK A01 T00591009  RH  062%=      5-min Rain = 0
KVP1 140200Z 19008KT 06/M01 A3024 RMK A01 T00591009  RH  062%=      5-min Rain = 0
KVP1 140201Z 19008KT 06/M01 A3024 RMK A01 T00591009  RH  062%=      5-min Rain = 0
KVP1 140202Z 19008KT 06/M01 A3024 RMK A01 T00591009  RH  061%=      5-min Rain = 0
KVP1 140203Z 19008KT 06/M01 A3024 RMK A01 T00591009  RH  062%=      5-min Rain = 0
KVP1 140204Z 19008KT 06/M01 A3024 RMK A01 T00591009  RH  062%=      5-min Rain = 0
KVP1 140205Z 19008KT 06/M01 A3024 RMK A01 T00591009  RH  061%=      5-min Rain = 0
KVP1 140206Z 19008KT 06/M01 A3024 RMK A01 T00591009  RH  062%=      5-min Rain = 0
KVP1 140207Z 19008KT 06/M01 A3024 RMK A01 T00591009  RH  062%=      5-min Rain = 0
KVP1 140208Z 19008KT 06/M01 A3024 RMK A01 T00591009  RH  061%=      5-min Rain = 0
KVP1 140209Z 19008KT 06/M01 A3024 RMK A01 T00591010  RH  061%=      5-min Rain = 0
KVP1 140210Z 19008KT 06/M01 A3024 RMK A01 T00581010  RH  062%=      5-min Rain = 0
KVP1 140211Z 18008KT 06/M01 A3024 RMK A01 T00571010  RH  062%=      5-min Rain = 0
KVP1 140212Z 19008KT 06/M01 A3024 RMK A01 T00571010  RH  062%=      5-min Rain = 0
KVP1 140213Z 19008KT 06/M01 A3024 RMK A01 T00561010  RH  062%=      5-min Rain = 0
KVP1 140214Z 19009KT 06/M01 A3024 RMK A01 T00551011  RH  063%=      5-min Rain = 0
KVP1 140215Z 19009KT 06/M01 A3024 RMK A01 T00551010  RH  063%=      5-min Rain = 0
KVP1 140216Z 19009KT 06/M01 A3024 RMK A01 T00551010  RH  063%=      5-min Rain = 0
KVP1 140217Z 19009KT 05/M01 A3024 RMK A01 T00541010  RH  063%=      5-min Rain = 0
KVP1 140218Z 19009KT 05/M01 A3024 RMK A01 T00541010  RH  063%=      5-min Rain = 0
KVP1 140219Z 19009KT 05/M01 A3024 RMK A01 T00531011  RH  063%=      5-min Rain = 0
KVP1 140220Z 19009KT 05/M01 A3024 RMK A01 T00521011  RH  064%=      5-min Rain = 0
KVP1 140221Z 19009KT 05/M01 A3025 RMK A01 T00511011  RH  064%=      5-min Rain = 0
KVP1 140222Z 20009KT 05/M01 A3025 RMK A01 T00501011  RH  064%=      5-min Rain = 0
KVP1 140223Z 20009KT 05/M01 A3025 RMK A01 T00491012  RH  064%=      5-min Rain = 0
KVP1 140224Z 20008KT 05/M01 A3025 RMK A01 T00481012  RH  065%=      5-min Rain = 0
KVP1 140225Z 20008KT 05/M01 A3024 RMK A01 T00471013  RH  065%=      5-min Rain = 0
KVP1 140226Z 20008KT 05/M01 A3024 RMK A01 T00471014  RH  065%=      5-min Rain = 0
KVP1 140227Z 20008KT 05/M02 A3024 RMK A01 T00461015  RH  065%=      5-min Rain = 0
KVP1 140228Z 20009KT 04/M02 A3024 RMK A01 T00441015  RH  065%=      5-min Rain = 0
KVP1 140229Z 20008KT 04/M02 A3024 RMK A01 T00431015  RH  066%=      5-min Rain = 0
KVP1 140230Z 20009KT 04/M02 A3024 RMK A01 T00431015  RH  066%=      5-min Rain = 0
KVP1 140231Z 20009KT 04/M01 A3024 RMK A01 T00431014  RH  066%=      5-min Rain = 0
KVP1 140232Z 20009KT 04/M01 A3024 RMK A01 T00431014  RH  067%=      5-min Rain = 0
KVP1 140233Z 19009KT 04/M01 A3024 RMK A01 T00431014  RH  067%=      5-min Rain = 0
KVP1 140234Z 19009KT 04/M01 A3024 RMK A01 T00421014  RH  067%=      5-min Rain = 0
KVP1 140235Z 20008KT 04/M01 A3024 RMK A01 T00421014  RH  067%=      5-min Rain = 0
KVP1 140236Z 20008KT 04/M01 A3024 RMK A01 T00421013  RH  067%=      5-min Rain = 0
KVP1 140237Z 20008KT 04/M01 A3024 RMK A01 T00421013  RH  067%=      5-min Rain = 0
KVP1 140238Z 20008KT 04/M01 A3025 RMK A01 T00421012  RH  068%=      5-min Rain = 0
KVP1 140239Z 20008KT 04/M01 A3025 RMK A01 T00431012  RH  068%=      5-min Rain = 0
KVP1 140240Z 20007KT 04/M01 A3025 RMK A01 T00431011  RH  068%=      5-min Rain = 0
KVP1 140241Z 20007KT 04/M01 A3025 RMK A01 T00441011  RH  067%=      5-min Rain = 0
KVP1 140242Z 20008KT 04/M01 A3025 RMK A01 T00441011  RH  067%=      5-min Rain = 0
KVP1 140243Z 20008KT 05/M01 A3025 RMK A01 T00451010  RH  067%=      5-min Rain = 0
KVP1 140244Z 20008KT 05/M01 A3025 RMK A01 T00461010  RH  067%=      5-min Rain = 0
KVP1 140245Z 19008KT 05/M01 A3025 RMK A01 T00461010  RH  067%=      5-min Rain = 0
KVP1 140246Z 19008KT 05/M01 A3025 RMK A01 T00461010  RH  067%=      5-min Rain = 0
KVP1 140247Z 19009KT 05/M01 A3025 RMK A01 T00461010  RH  067%=      5-min Rain = 0
KVP1 140248Z 19009KT 05/M01 A3025 RMK A01 T00461009  RH  067%=      5-min Rain = 0
KVP1 140249Z 19009KT 05/M01 A3025 RMK A01 T00461009  RH  067%=      5-min Rain = 0
KVP1 140250Z 19009KT 05/M01 A3025 RMK A01 T00461008  RH  068%=      5-min Rain = 0
KVP1 140251Z 19009KT 05/M01 A3025 RMK A01 T00461008  RH  068%=      5-min Rain = 0
KVP1 140252Z 19009KT 05/M01 A3025 RMK A01 T00471008  RH  068%=      5-min Rain = 0
KVP1 140253Z 19009KT 05/M01 A3025 RMK A01 T00471007  RH  068%=      5-min Rain = 0
KVP1 140254Z 19009KT 05/M01 A3025 RMK A01 T00471007  RH  068%=      5-min Rain = 0
KVP1 140255Z 19009KT 05/M01 A3025 RMK A01 T00471007  RH  068%=      5-min Rain = 0
KVP1 140256Z 19009KT 05/M01 A3025 RMK A01 T00481007  RH  068%=      5-min Rain = 0
KVP1 140257Z 19009KT 05/M01 A3025 RMK A01 T00481007  RH  068%=      5-min Rain = 0
KVP1 140258Z 19009KT 05/M01 A3025 RMK A01 T00481007  RH  068%=      5-min Rain = 0
KVP1 140259Z 19009KT 05/M01 A3025 RMK A01 T00471007  RH  068%=      5-min Rain = 0
KVP1 140300Z 19009KT 05/M01 A3025 RMK A01 T00471007  RH  068%=      5-min Rain = 0
KVP1 140301Z 19009KT 05/M01 A3025 RMK A01 T00461008  RH  068%=      5-min Rain = 0
KVP1 140302Z 19009KT 05/M01 A3025 RMK A01 T00461008  RH  068%=      5-min Rain = 0
KVP1 140303Z 19009KT 05/M01 A3025 RMK A01 T00451009  RH  068%=      5-min Rain = 0
KVP1 140304Z 19010KT 04/M01 A3025 RMK A01 T00441009  RH  068%=      5-min Rain = 0
KVP1 140305Z 19010KT 04/M01 A3025 RMK A01 T00441009  RH  068%=      5-min Rain = 0
KVP1 140306Z 19010KT 04/M01 A3025 RMK A01 T00441009  RH  068%=      5-min Rain = 0
KVP1 140307Z 19010KT 04/M01 A3025 RMK A01 T00441009  RH  068%=      5-min Rain = 0
KVP1 140308Z 19010KT 04/M01 A3025 RMK A01 T00441009  RH  068%=      5-min Rain = 0
KVP1 140309Z 19010KT 04/M01 A3025 RMK A01 T00441009  RH  068%=      5-min Rain = 0
KVP1 140310Z 19009KT 04/M01 A3025 RMK A01 T00441009  RH  069%=      5-min Rain = 0
KVP1 140311Z 19009KT 04/M01 A3025 RMK A01 T00441009  RH  068%=      5-min Rain = 0
KVP1 140312Z 18009KT 05/M01 A3024 RMK A01 T00451008  RH  068%=      5-min Rain = 0
KVP1 140313Z 18009KT 05/M01 A3024 RMK A01 T00451008  RH  068%=      5-min Rain = 0
KVP1 140314Z 19009KT 05/M01 A3024 RMK A01 T00461008  RH  068%=      5-min Rain = 0
KVP1 140315Z 19009KT 05/M01 A3024 RMK A01 T00461008  RH  068%=      5-min Rain = 0
KVP1 140316Z 19009KT 05/M01 A3024 RMK A01 T00461008  RH  068%=      5-min Rain = 0
KVP1 140317Z 19008KT 05/M01 A3025 RMK A01 T00461008  RH  068%=      5-min Rain = 0
KVP1 140318Z 19008KT 05/M01 A3025 RMK A01 T00471008  RH  068%=      5-min Rain = 0
KVP1 140319Z 19008KT 05/M01 A3025 RMK A01 T00471008  RH  068%=      5-min Rain = 0
KVP1 140320Z 19009KT 05/M01 A3025 RMK A01 T00471008  RH  068%=      5-min Rain = 0
KVP1 140321Z 19009KT 05/M01 A3025 RMK A01 T00461008  RH  068%=      5-min Rain = 0
KVP1 140322Z 19009KT 05/M01 A3025 RMK A01 T00461008  RH  068%=      5-min Rain = 0
KVP1 140323Z 19009KT 05/M01 A3025 RMK A01 T00461008  RH  068%=      5-min Rain = 0
KVP1 140324Z 19008KT 05/M01 A3025 RMK A01 T00451009  RH  068%=      5-min Rain = 0
KVP1 140325Z 19009KT 05/M01 A3025 RMK A01 T00451009  RH  068%=      5-min Rain = 0
KVP1 140326Z 19009KT 04/M01 A3025 RMK A01 T00441010  RH  068%=      5-min Rain = 0
KVP1 140327Z 19009KT 04/M01 A3025 RMK A01 T00431010  RH  068%=      5-min Rain = 0
KVP1 140328Z 19009KT 04/M01 A3025 RMK A01 T00431011  RH  068%=      5-min Rain = 0
KVP1 140329Z 19009KT 04/M01 A3025 RMK A01 T00421011  RH  068%=      5-min Rain = 0
KVP1 140330Z 19008KT 04/M01 A3025 RMK A01 T00411011  RH  069%=      5-min Rain = 0
KVP1 140331Z 19008KT 04/M01 A3024 RMK A01 T00401012  RH  069%=      5-min Rain = 0
KVP1 140332Z 19008KT 04/M01 A3024 RMK A01 T00401012  RH  069%=      5-min Rain = 0
KVP1 140333Z 19008KT 04/M01 A3024 RMK A01 T00391013  RH  069%=      5-min Rain = 0
KVP1 140334Z 19008KT 04/M01 A3024 RMK A01 T00381013  RH  069%=      5-min Rain = 0
KVP1 140335Z 19008KT 04/M01 A3024 RMK A01 T00381013  RH  069%=      5-min Rain = 0
KVP1 140336Z 19008KT 04/M01 A3024 RMK A01 T00371013  RH  070%=      5-min Rain = 0
KVP1 140337Z 19008KT 04/M01 A3024 RMK A01 T00371013  RH  070%=      5-min Rain = 0
KVP1 140338Z 19008KT 04/M01 A3024 RMK A01 T00371013  RH  070%=      5-min Rain = 0
KVP1 140339Z 19008KT 04/M01 A3024 RMK A01 T00361013  RH  070%=      5-min Rain = 0
KVP1 140340Z 19008KT 04/M01 A3024 RMK A01 T00361013  RH  070%=      5-min Rain = 0
KVP1 140341Z 19008KT 04/M01 A3024 RMK A01 T00351014  RH  070%=      5-min Rain = 0
KVP1 140342Z 19008KT 04/M01 A3024 RMK A01 T00351014  RH  070%=      5-min Rain = 0
KVP1 140343Z 19008KT 04/M01 A3024 RMK A01 T00351014  RH  071%=      5-min Rain = 0
KVP1 140344Z 19008KT 04/M01 A3024 RMK A01 T00351014  RH  071%=      5-min Rain = 0
KVP1 140345Z 19008KT 03/M01 A3024 RMK A01 T00341014  RH  071%=      5-min Rain = 0
KVP1 140346Z 19008KT 03/M01 A3024 RMK A01 T00341013  RH  071%=      5-min Rain = 0
KVP1 140347Z 20008KT 03/M01 A3024 RMK A01 T00341013  RH  071%=      5-min Rain = 0
KVP1 140348Z 20008KT 04/M01 A3024 RMK A01 T00351012  RH  071%=      5-min Rain = 0
KVP1 140349Z 20008KT 04/M01 A3024 RMK A01 T00351012  RH  071%=      5-min Rain = 0
KVP1 140350Z 20008KT 04/M01 A3024 RMK A01 T00351012  RH  071%=      5-min Rain = 0
KVP1 140351Z 20008KT 04/M01 A3024 RMK A01 T00351011  RH  071%=      5-min Rain = 0
KVP1 140352Z 20008KT 04/M01 A3024 RMK A01 T00351011  RH  072%=      5-min Rain = 0
KVP1 140353Z 20008KT 04/M01 A3024 RMK A01 T00351011  RH  072%=      5-min Rain = 0
KVP1 140354Z 20008KT 04/M01 A3024 RMK A01 T00351011  RH  072%=      5-min Rain = 0
KVP1 140355Z 20008KT 03/M01 A3024 RMK A01 T00341011  RH  072%=      5-min Rain = 0
KVP1 140356Z 20009KT 03/M01 A3024 RMK A01 T00341010  RH  073%=      5-min Rain = 0
KVP1 140357Z 20009KT 04/M01 A3025 RMK A01 T00351009  RH  073%=      5-min Rain = 0
KVP1 140358Z 20009KT 03/M01 A3025 RMK A01 T00341009  RH  073%=      5-min Rain = 0
KVP1 140359Z 20009KT 04/M01 A3025 RMK A01 T00351008  RH  073%=      5-min Rain = 0
KVP1 140400Z 20009KT 04/M01 A3025 RMK A01 T00361007  RH  073%=      5-min Rain = 0
KVP1 140401Z 20009KT 04/M01 A3025 RMK A01 T00361007  RH  073%=      5-min Rain = 0
KVP1 140402Z 20009KT 04/M01 A3025 RMK A01 T00371007  RH  073%=      5-min Rain = 0
KVP1 140403Z 20009KT 04/M01 A3025 RMK A01 T00381006  RH  073%=      5-min Rain = 0
KVP1 140404Z 20009KT 04/M01 A3025 RMK A01 T00381006  RH  073%=      5-min Rain = 0
KVP1 140405Z 20008KT 04/M01 A3025 RMK A01 T00391006  RH  073%=      5-min Rain = 0
KVP1 140406Z 20008KT 04/M01 A3025 RMK A01 T00391006  RH  073%=      5-min Rain = 0
KVP1 140407Z 20008KT 04/M01 A3025 RMK A01 T00381007  RH  072%=      5-min Rain = 0
KVP1 140408Z 20008KT 04/M01 A3025 RMK A01 T00381007  RH  072%=      5-min Rain = 0
KVP1 140409Z 20008KT 04/M01 A3025 RMK A01 T00381007  RH  073%=      5-min Rain = 0
KVP1 140410Z 21008KT 04/M01 A3025 RMK A01 T00381006  RH  073%=      5-min Rain = 0
KVP1 140411Z 21008KT 04/M01 A3025 RMK A01 T00381006  RH  073%=      5-min Rain = 0
KVP1 140412Z 21008KT 04/M01 A3025 RMK A01 T00381006  RH  073%=      5-min Rain = 0
KVP1 140413Z 21007KT 04/M01 A3025 RMK A01 T00381005  RH  073%=      5-min Rain = 0
KVP1 140414Z 21008KT 04/M00 A3025 RMK A01 T00391004  RH  073%=      5-min Rain = 0
KVP1 140415Z 20008KT 04/M00 A3025 RMK A01 T00401003  RH  074%=      5-min Rain = 0
KVP1 140416Z 21009KT 04/M00 A3025 RMK A01 T00401002  RH  074%=      5-min Rain = 0
KVP1 140417Z 21009KT 04/00 A3025 RMK A01 T004200-0  RH  074%=      5-min Rain = 0
KVP1 140418Z 21009KT 04/00 A3025 RMK A01 T00440001  RH  074%=      5-min Rain = 0
KVP1 140419Z 20009KT 05/00 A3025 RMK A01 T00450002  RH  073%=      5-min Rain = 0
KVP1 140420Z 20009KT 05/00 A3025 RMK A01 T00470002  RH  073%=      5-min Rain = 0
KVP1 140421Z 20009KT 05/00 A3025 RMK A01 T00480002  RH  072%=      5-min Rain = 0
KVP1 140422Z 20009KT 05/00 A3025 RMK A01 T00480002  RH  072%=      5-min Rain = 0
KVP1 140423Z 20009KT 05/00 A3025 RMK A01 T00480002  RH  072%=      5-min Rain = 0
KVP1 140424Z 20009KT 05/00 A3025 RMK A01 T00490002  RH  072%=      5-min Rain = 0
KVP1 140425Z 20009KT 05/00 A3025 RMK A01 T00490002  RH  072%=      5-min Rain = 0
KVP1 140426Z 20009KT 05/00 A3025 RMK A01 T00500003  RH  072%=      5-min Rain = 0
KVP1 140427Z 20008KT 05/00 A3025 RMK A01 T00500003  RH  071%=      5-min Rain = 0
KVP1 140428Z 20008KT 05/00 A3025 RMK A01 T00500002  RH  071%=      5-min Rain = 0
KVP1 140429Z 20008KT 05/00 A3025 RMK A01 T00500002  RH  071%=      5-min Rain = 0
KVP1 140430Z 20008KT 05/00 A3025 RMK A01 T00500002  RH  071%=      5-min Rain = 0
KVP1 140431Z 20008KT 05/00 A3025 RMK A01 T00500002  RH  071%=      5-min Rain = 0
KVP1 140432Z 20008KT 05/00 A3025 RMK A01 T00490001  RH  071%=      5-min Rain = 0
KVP1 140433Z 20008KT 05/00 A3025 RMK A01 T00490001  RH  071%=      5-min Rain = 0
KVP1 140434Z 20008KT 05/00 A3025 RMK A01 T00480001  RH  071%=      5-min Rain = 0
KVP1 140435Z 20008KT 05/00 A3025 RMK A01 T00480000  RH  071%=      5-min Rain = 0
KVP1 140436Z 20007KT 05/00 A3024 RMK A01 T004700-0  RH  071%=      5-min Rain = 0
KVP1 140437Z 20007KT 05/00 A3024 RMK A01 T004700-0  RH  071%=      5-min Rain = 0
KVP1 140438Z 20007KT 05/M00 A3024 RMK A01 T00461001  RH  072%=      5-min Rain = 0
KVP1 140439Z 20007KT 05/M00 A3024 RMK A01 T00461001  RH  072%=      5-min Rain = 0
KVP1 140440Z 20007KT 05/M00 A3024 RMK A01 T00451002  RH  072%=      5-min Rain = 0
KVP1 140441Z 20007KT 04/M00 A3024 RMK A01 T00441002  RH  072%=      5-min Rain = 0
KVP1 140442Z 20007KT 04/M00 A3024 RMK A01 T00441002  RH  072%=      5-min Rain = 0
KVP1 140443Z 20007KT 04/M00 A3024 RMK A01 T00431003  RH  072%=      5-min Rain = 0
KVP1 140444Z 20008KT 04/M00 A3024 RMK A01 T00431003  RH  072%=      5-min Rain = 0
KVP1 140445Z 20008KT 04/M00 A3024 RMK A01 T00421003  RH  072%=      5-min Rain = 0
KVP1 140446Z 20008KT 04/M00 A3024 RMK A01 T00421003  RH  072%=      5-min Rain = 0
KVP1 140447Z 20008KT 04/M00 A3024 RMK A01 T00421003  RH  072%=      5-min Rain = 0
KVP1 140448Z 20008KT 04/M00 A3024 RMK A01 T00421003  RH  073%=      5-min Rain = 0
KVP1 140449Z 20008KT 04/M00 A3024 RMK A01 T00421003  RH  073%=      5-min Rain = 0
KVP1 140450Z 20008KT 04/M00 A3024 RMK A01 T00421003  RH  073%=      5-min Rain = 0
KVP1 140451Z 20008KT 04/M00 A3024 RMK A01 T00421002  RH  073%=      5-min Rain = 0
KVP1 140452Z 20009KT 04/M00 A3024 RMK A01 T00421003  RH  073%=      5-min Rain = 0
KVP1 140453Z 20009KT 04/M00 A3024 RMK A01 T00421002  RH  073%=      5-min Rain = 0
KVP1 140454Z 20009KT 04/M00 A3024 RMK A01 T00421002  RH  073%=      5-min Rain = 0
KVP1 140455Z 20009KT 04/M00 A3023 RMK A01 T00431001  RH  073%=      5-min Rain = 0
KVP1 140456Z 20009KT 04/M00 A3023 RMK A01 T00431001  RH  073%=      5-min Rain = 0
KVP1 140457Z 20009KT 04/00 A3023 RMK A01 T004400-0  RH  073%=      5-min Rain = 0
KVP1 140458Z 20009KT 05/00 A3023 RMK A01 T00450000  RH  073%=      5-min Rain = 0
KVP1 140459Z 20010KT 05/00 A3023 RMK A01 T00450001  RH  073%=      5-min Rain = 0
KVP1 140500Z 20009KT 05/00 A3023 RMK A01 T00460002  RH  073%=      5-min Rain = 0
KVP1 140501Z 20009KT 05/00 A3023 RMK A01 T00470002  RH  073%=      5-min Rain = 0
KVP1 140502Z 20009KT 05/00 A3023 RMK A01 T00480003  RH  073%=      5-min Rain = 0
KVP1 140503Z 20009KT 05/00 A3023 RMK A01 T00490004  RH  073%=      5-min Rain = 0
KVP1 140504Z 19009KT 05/00 A3023 RMK A01 T00500004  RH  072%=      5-min Rain = 0
KVP1 140505Z 20009KT 05/01 A3023 RMK A01 T00500005  RH  072%=      5-min Rain = 0
KVP1 140506Z 20010KT 05/01 A3023 RMK A01 T00510006  RH  073%=      5-min Rain = 0
KVP1 140507Z 20008KT 05/01 A3023 RMK A01 T00520007  RH  072%=      5-min Rain = 0
KVP1 140508Z 20008KT 05/01 A3023 RMK A01 T00530007  RH  072%=      5-min Rain = 0
KVP1 140509Z 21009KT 05/01 A3023 RMK A01 T00530007  RH  072%=      5-min Rain = 0
KVP1 140510Z 21009KT 05/01 A3023 RMK A01 T00540008  RH  072%=      5-min Rain = 0
KVP1 140511Z 20008KT 06/01 A3023 RMK A01 T00550009  RH  073%=      5-min Rain = 0
KVP1 140512Z 21008KT 06/01 A3023 RMK A01 T00560010  RH  073%=      5-min Rain = 0
KVP1 140513Z 21008KT 06/01 A3023 RMK A01 T00570011  RH  073%=      5-min Rain = 0
KVP1 140514Z 21008KT 06/01 A3023 RMK A01 T00570011  RH  072%=      5-min Rain = 0
KVP1 140515Z 20007KT 06/01 A3023 RMK A01 T00570011  RH  072%=      5-min Rain = 0
KVP1 140516Z 20008KT 06/01 A3023 RMK A01 T00570011  RH  072%=      5-min Rain = 0
KVP1 140517Z 20008KT 06/01 A3023 RMK A01 T00570011  RH  072%=      5-min Rain = 0
KVP1 140518Z 20008KT 06/01 A3023 RMK A01 T00580012  RH  072%=      5-min Rain = 0
KVP1 140519Z 20008KT 06/01 A3023 RMK A01 T00580012  RH  072%=      5-min Rain = 0
KVP1 140520Z 21007KT 06/01 A3023 RMK A01 T00580012  RH  072%=      5-min Rain = 0
KVP1 140521Z 21008KT 06/01 A3023 RMK A01 T00570011  RH  072%=      5-min Rain = 0
KVP1 140522Z 21008KT 06/01 A3023 RMK A01 T00570011  RH  072%=      5-min Rain = 0
KVP1 140523Z 21008KT 06/01 A3023 RMK A01 T00570011  RH  073%=      5-min Rain = 0
KVP1 140524Z 21009KT 06/01 A3023 RMK A01 T00560011  RH  073%=      5-min Rain = 0
KVP1 140525Z 21009KT 06/01 A3023 RMK A01 T00560011  RH  073%=      5-min Rain = 0
KVP1 140526Z 21009KT 06/01 A3023 RMK A01 T00560012  RH  073%=      5-min Rain = 0
KVP1 140527Z 21009KT 06/01 A3023 RMK A01 T00570012  RH  073%=      5-min Rain = 0
KVP1 140528Z 21009KT 06/01 A3023 RMK A01 T00570011  RH  072%=      5-min Rain = 0
KVP1 140529Z 21009KT 06/01 A3023 RMK A01 T00560010  RH  072%=      5-min Rain = 0
KVP1 140530Z 21009KT 06/01 A3023 RMK A01 T00560010  RH  073%=      5-min Rain = 0
KVP1 140531Z 21009KT 06/01 A3023 RMK A01 T00550010  RH  073%=      5-min Rain = 0
KVP1 140532Z 21009KT 05/01 A3023 RMK A01 T00540010  RH  073%=      5-min Rain = 0
KVP1 140533Z 21009KT 05/01 A3023 RMK A01 T00540009  RH  073%=      5-min Rain = 0
KVP1 140534Z 21008KT 05/01 A3023 RMK A01 T00530009  RH  073%=      5-min Rain = 0
KVP1 140535Z 21009KT 05/01 A3023 RMK A01 T00520008  RH  073%=      5-min Rain = 0
KVP1 140536Z 21009KT 05/01 A3023 RMK A01 T00510008  RH  073%=      5-min Rain = 0
KVP1 140537Z 21009KT 05/01 A3023 RMK A01 T00500007  RH  074%=      5-min Rain = 0
KVP1 140538Z 21008KT 05/01 A3023 RMK A01 T00490007  RH  074%=      5-min Rain = 0
KVP1 140539Z 21008KT 05/01 A3023 RMK A01 T00480006  RH  074%=      5-min Rain = 0
KVP1 140540Z 21008KT 05/01 A3023 RMK A01 T00470005  RH  074%=      5-min Rain = 0
KVP1 140541Z 21008KT 05/01 A3023 RMK A01 T00460005  RH  075%=      5-min Rain = 0
KVP1 140542Z 21008KT 05/00 A3023 RMK A01 T00450004  RH  075%=      5-min Rain = 0
KVP1 140543Z 21008KT 04/00 A3023 RMK A01 T00440004  RH  075%=      5-min Rain = 0
KVP1 140544Z 21007KT 04/00 A3023 RMK A01 T00430003  RH  075%=      5-min Rain = 0
KVP1 140545Z 21007KT 04/00 A3023 RMK A01 T00430003  RH  075%=      5-min Rain = 0
KVP1 140546Z 21007KT 04/00 A3023 RMK A01 T00420003  RH  076%=      5-min Rain = 0
KVP1 140547Z 21008KT 04/00 A3023 RMK A01 T00410002  RH  076%=      5-min Rain = 0
KVP1 140548Z 21007KT 04/00 A3023 RMK A01 T00400002  RH  076%=      5-min Rain = 0
KVP1 140549Z 21008KT 04/00 A3023 RMK A01 T00390002  RH  077%=      5-min Rain = 0
KVP1 140550Z 21007KT 04/00 A3023 RMK A01 T00390002  RH  077%=      5-min Rain = 0
KVP1 140551Z 22007KT 04/00 A3023 RMK A01 T00380002  RH  077%=      5-min Rain = 0
KVP1 140552Z 22007KT 04/00 A3023 RMK A01 T00380002  RH  077%=      5-min Rain = 0
KVP1 140553Z 22007KT 04/00 A3022 RMK A01 T00380002  RH  077%=      5-min Rain = 0
KVP1 140554Z 22007KT 04/00 A3022 RMK A01 T00380002  RH  077%=      5-min Rain = 0
KVP1 140555Z 22006KT 04/00 A3022 RMK A01 T00380002  RH  077%=      5-min Rain = 0
KVP1 140556Z 22006KT 04/00 A3022 RMK A01 T00380003  RH  077%=      5-min Rain = 0
KVP1 140557Z 22006KT 04/00 A3022 RMK A01 T00390003  RH  078%=      5-min Rain = 0
KVP1 140558Z 22006KT 04/00 A3022 RMK A01 T00390003  RH  077%=      5-min Rain = 0
KVP1 140559Z 22007KT 04/00 A3023 RMK A01 T00390003  RH  077%=      5-min Rain = 0
KVP1 140600Z 22007KT 04/00 A3023 RMK A01 T00390003  RH  077%=      5-min Rain = 0

Page generated in 0.0326 seconds.